Time,TemperatureF,DewpointF,PressureIn,WindDirection,WindDirectionDegrees,WindSpeedMPH,WindSpeedGustMPH,Humidity,HourlyPrecipIn,Conditions,Clouds,dailyrainin,SoftwareType,DateUTC
2013-06-22 00:03:00,79.4,70.7,29.95,South,180,4.7,7.6,75,0.00,,,0.00,WUHU216HW,2013-06-22 05:03:00,
2013-06-22 00:04:00,79.4,70.7,29.95,South,180,5.6,7.6,75,0.00,,,0.00,WUHU216HW,2013-06-22 05:04:00,
2013-06-22 00:08:00,79.4,70.7,29.95,SSW,203,5.1,7.6,75,0.00,,,0.00,WUHU216HW,2013-06-22 05:08:00,
2013-06-22 00:09:00,79.4,70.7,29.95,SSW,203,5.4,7.6,75,0.00,,,0.00,WUHU216HW,2013-06-22 05:09:00,
2013-06-22 00:10:00,79.4,70.7,29.95,South,180,7.6,7.6,75,0.00,,,0.00,WUHU216HW,2013-06-22 05:10:00,
2013-06-22 00:13:00,79.4,70.7,29.95,SSW,203,3.1,7.6,75,0.00,,,0.00,WUHU216HW,2013-06-22 05:13:00,
2013-06-22 00:14:00,79.4,70.7,29.95,SSW,203,4.9,7.6,75,0.00,,,0.00,WUHU216HW,2013-06-22 05:14:00,
2013-06-22 00:16:00,79.6,70.9,29.95,SSE,158,2.5,7.6,75,0.00,,,0.00,WUHU216HW,2013-06-22 05:16:00,
2013-06-22 00:18:00,79.4,70.4,29.95,SSE,158,3.4,7.6,74,0.00,,,0.00,WUHU216HW,2013-06-22 05:18:00,
2013-06-22 00:19:00,79.4,70.4,29.95,SSE,158,2.9,7.6,74,0.00,,,0.00,WUHU216HW,2013-06-22 05:19:00,
2013-06-22 00:20:00,79.4,70.4,29.95,SW,225,2.0,7.6,74,0.00,,,0.00,WUHU216HW,2013-06-22 05:20:00,
2013-06-22 00:22:00,79.4,70.4,29.95,South,180,5.1,5.4,74,0.00,,,0.00,WUHU216HW,2013-06-22 05:22:00,
2013-06-22 00:23:00,79.4,70.4,29.95,South,180,4.5,5.6,74,0.00,,,0.00,WUHU216HW,2013-06-22 05:23:00,
2013-06-22 00:24:00,79.4,70.4,29.95,SSW,203,5.4,5.6,74,0.00,,,0.00,WUHU216HW,2013-06-22 05:24:00,
2013-06-22 00:25:00,79.4,70.4,29.95,SSW,203,5.4,5.6,74,0.00,,,0.00,WUHU216HW,2013-06-22 05:25:00,
2013-06-22 00:27:00,79.4,70.4,29.95,SW,225,4.7,5.6,74,0.00,,,0.00,WUHU216HW,2013-06-22 05:27:00,
2013-06-22 00:28:00,79.6,70.6,29.95,SW,225,4.7,5.6,74,0.00,,,0.00,WUHU216HW,2013-06-22 05:28:00,
2013-06-22 00:30:00,79.6,70.6,29.95,SSW,203,3.8,5.6,74,0.00,,,0.00,WUHU216HW,2013-06-22 05:30:00,
2013-06-22 00:32:00,79.6,70.6,29.95,South,180,4.5,6.7,74,0.00,,,0.00,WUHU216HW,2013-06-22 05:32:00,
2013-06-22 00:33:00,79.4,70.4,29.95,SSE,158,4.9,6.7,74,0.00,,,0.00,WUHU216HW,2013-06-22 05:33:00,
2013-06-22 00:35:00,79.4,70.4,29.95,SE,135,2.5,6.7,74,0.00,,,0.00,WUHU216HW,2013-06-22 05:35:00,
2013-06-22 00:37:00,79.4,70.4,29.95,SSW,203,5.8,6.7,74,0.00,,,0.00,WUHU216HW,2013-06-22 05:37:00,
2013-06-22 00:38:00,79.4,70.4,29.95,SSW,203,3.4,6.7,74,0.00,,,0.00,WUHU216HW,2013-06-22 05:38:00,
2013-06-22 00:40:00,79.4,70.4,29.95,SSW,203,4.0,6.7,74,0.00,,,0.00,WUHU216HW,2013-06-22 05:40:00,
2013-06-22 00:42:00,79.4,70.4,29.95,South,180,5.4,6.5,74,0.00,,,0.00,WUHU216HW,2013-06-22 05:42:00,
2013-06-22 00:43:00,79.6,70.6,29.95,SSE,158,7.4,8.5,74,0.00,,,0.00,WUHU216HW,2013-06-22 05:43:00,
2013-06-22 00:45:00,79.4,70.4,29.95,South,180,4.0,8.5,74,0.00,,,0.00,WUHU216HW,2013-06-22 05:45:00,
2013-06-22 00:47:00,79.6,70.6,29.95,South,180,6.9,8.5,74,0.00,,,0.00,WUHU216HW,2013-06-22 05:47:00,
2013-06-22 00:48:00,79.6,70.6,29.95,SW,225,4.3,8.5,74,0.00,,,0.00,WUHU216HW,2013-06-22 05:48:00,
2013-06-22 00:50:00,79.6,70.6,29.95,South,180,4.5,8.5,74,0.00,,,0.00,WUHU216HW,2013-06-22 05:50:00,
2013-06-22 00:51:00,79.6,70.6,29.95,SE,135,4.7,8.5,74,0.00,,,0.00,WUHU216HW,2013-06-22 05:51:00,
2013-06-22 00:52:00,79.6,70.6,29.95,South,180,5.8,8.5,74,0.00,,,0.00,WUHU216HW,2013-06-22 05:52:00,
2013-06-22 00:54:00,79.6,70.1,29.95,SSW,203,1.6,9.4,73,0.00,,,0.00,WUHU216HW,2013-06-22 05:54:00,
2013-06-22 00:55:00,79.6,70.1,29.95,SSW,203,3.4,9.4,73,0.00,,,0.00,WUHU216HW,2013-06-22 05:55:00,
2013-06-22 00:56:00,79.6,70.1,29.95,South,180,5.6,9.4,73,0.00,,,0.00,WUHU216HW,2013-06-22 05:56:00,
2013-06-22 00:57:00,79.6,70.1,29.95,SSW,203,5.4,9.4,73,0.00,,,0.00,WUHU216HW,2013-06-22 05:57:00,
2013-06-22 00:59:00,79.6,70.1,29.95,SSW,203,3.6,9.4,73,0.00,,,0.00,WUHU216HW,2013-06-22 05:59:00,
2013-06-22 01:00:00,79.6,70.1,29.94,South,180,3.4,9.4,73,0.00,,,0.00,WUHU216HW,2013-06-22 06:00:00,
2013-06-22 01:01:00,79.6,70.1,29.94,South,180,3.4,9.4,73,0.00,,,0.00,WUHU216HW,2013-06-22 06:01:00,
2013-06-22 01:02:00,79.6,70.1,29.94,South,180,6.0,9.4,73,0.00,,,0.00,WUHU216HW,2013-06-22 06:02:00,
2013-06-22 01:03:00,79.4,69.9,29.94,South,180,2.5,9.4,73,0.00,,,0.00,WUHU216HW,2013-06-22 06:03:00,
2013-06-22 01:04:00,79.4,69.9,29.95,South,180,2.5,8.3,73,0.00,,,0.00,WUHU216HW,2013-06-22 06:04:00,
2013-06-22 01:06:00,79.4,69.9,29.95,SSE,158,2.9,8.3,73,0.00,,,0.00,WUHU216HW,2013-06-22 06:06:00,
2013-06-22 01:07:00,79.4,70.4,29.94,SE,135,3.4,8.3,74,0.00,,,0.00,WUHU216HW,2013-06-22 06:07:00,
2013-06-22 01:08:00,79.4,70.4,29.94,SSE,158,3.4,8.3,74,0.00,,,0.00,WUHU216HW,2013-06-22 06:08:00,
2013-06-22 01:09:00,79.4,70.4,29.94,SSE,158,4.7,8.3,74,0.00,,,0.00,WUHU216HW,2013-06-22 06:09:00,
2013-06-22 01:11:00,79.4,70.4,29.94,SSW,203,3.6,6.9,74,0.00,,,0.00,WUHU216HW,2013-06-22 06:11:00,
2013-06-22 01:12:00,79.2,70.2,29.95,SW,225,2.7,6.9,74,0.00,,,0.00,WUHU216HW,2013-06-22 06:12:00,
2013-06-22 01:13:00,79.2,70.2,29.95,SSW,203,3.8,6.9,74,0.00,,,0.00,WUHU216HW,2013-06-22 06:13:00,
2013-06-22 01:14:00,79.2,70.2,29.95,SSE,158,2.5,6.9,74,0.00,,,0.00,WUHU216HW,2013-06-22 06:14:00,
2013-06-22 01:16:00,79.2,70.2,29.95,East,90,2.9,6.9,74,0.00,,,0.00,WUHU216HW,2013-06-22 06:16:00,
2013-06-22 01:18:00,79.2,70.2,29.95,SSE,158,4.0,6.9,74,0.00,,,0.00,WUHU216HW,2013-06-22 06:18:00,
2013-06-22 01:19:00,79.0,70.0,29.95,SSW,203,2.0,6.5,74,0.00,,,0.00,WUHU216HW,2013-06-22 06:19:00,
2013-06-22 01:21:00,79.0,70.0,29.95,SSE,158,4.9,6.3,74,0.00,,,0.00,WUHU216HW,2013-06-22 06:21:00,
2013-06-22 01:23:00,79.0,70.0,29.95,SSE,158,4.7,6.3,74,0.00,,,0.00,WUHU216HW,2013-06-22 06:23:00,
2013-06-22 01:25:00,79.0,70.4,29.95,South,180,3.4,6.3,75,0.00,,,0.00,WUHU216HW,2013-06-22 06:25:00,
2013-06-22 01:26:00,79.0,70.0,29.95,SSE,158,3.6,6.3,74,0.00,,,0.00,WUHU216HW,2013-06-22 06:26:00,
2013-06-22 01:27:00,79.0,70.0,29.95,South,180,3.1,6.3,74,0.00,,,0.00,WUHU216HW,2013-06-22 06:27:00,
2013-06-22 01:29:00,79.0,70.0,29.95,South,180,4.5,6.3,74,0.00,,,0.00,WUHU216HW,2013-06-22 06:29:00,
2013-06-22 01:30:00,78.8,69.9,29.95,SSW,203,2.7,6.3,74,0.00,,,0.00,WUHU216HW,2013-06-22 06:30:00,
2013-06-22 01:31:00,78.8,69.9,29.95,SE,135,1.8,4.7,74,0.00,,,0.00,WUHU216HW,2013-06-22 06:31:00,
2013-06-22 01:33:00,78.8,69.9,29.95,South,180,3.6,4.7,74,0.00,,,0.00,WUHU216HW,2013-06-22 06:33:00,
2013-06-22 01:34:00,78.8,69.9,29.95,SSE,158,6.5,6.5,74,0.00,,,0.00,WUHU216HW,2013-06-22 06:34:00,
2013-06-22 01:35:00,78.8,69.9,29.94,SSW,203,5.1,7.2,74,0.00,,,0.00,WUHU216HW,2013-06-22 06:35:00,
2013-06-22 01:36:00,78.8,69.9,29.94,SSW,203,6.5,7.2,74,0.00,,,0.00,WUHU216HW,2013-06-22 06:36:00,
2013-06-22 01:38:00,78.8,70.2,29.95,SSW,203,3.6,7.2,75,0.00,,,0.00,WUHU216HW,2013-06-22 06:38:00,
2013-06-22 01:39:00,78.8,70.2,29.94,SSW,203,4.7,7.2,75,0.00,,,0.00,WUHU216HW,2013-06-22 06:39:00,
2013-06-22 01:40:00,78.8,69.9,29.94,SSE,158,4.7,7.2,74,0.00,,,0.00,WUHU216HW,2013-06-22 06:40:00,
2013-06-22 01:41:00,78.8,69.9,29.94,SSW,203,2.9,7.2,74,0.00,,,0.00,WUHU216HW,2013-06-22 06:41:00,
2013-06-22 01:43:00,78.8,69.9,29.94,SSE,158,6.3,7.2,74,0.00,,,0.00,WUHU216HW,2013-06-22 06:43:00,
2013-06-22 01:44:00,78.8,69.9,29.94,South,180,7.2,7.2,74,0.00,,,0.00,WUHU216HW,2013-06-22 06:44:00,
2013-06-22 01:45:00,78.8,69.9,29.94,SW,225,5.6,7.2,74,0.00,,,0.00,WUHU216HW,2013-06-22 06:45:00,
2013-06-22 01:46:00,78.7,69.7,29.94,SSE,158,9.6,9.6,74,0.00,,,0.00,WUHU216HW,2013-06-22 06:46:00,
2013-06-22 01:48:00,78.7,69.7,29.94,SW,225,6.9,9.6,74,0.00,,,0.00,WUHU216HW,2013-06-22 06:48:00,
2013-06-22 01:49:00,78.7,69.7,29.94,South,180,3.4,9.6,74,0.00,,,0.00,WUHU216HW,2013-06-22 06:49:00,
2013-06-22 01:50:00,78.7,69.7,29.93,South,180,3.4,9.6,74,0.00,,,0.00,WUHU216HW,2013-06-22 06:50:00,
2013-06-22 01:51:00,78.7,69.7,29.94,South,180,2.5,9.6,74,0.00,,,0.00,WUHU216HW,2013-06-22 06:51:00,
2013-06-22 01:52:00,78.7,69.7,29.93,South,180,6.3,9.6,74,0.00,,,0.00,WUHU216HW,2013-06-22 06:52:00,
2013-06-22 01:53:00,78.5,69.5,29.93,South,180,5.4,9.6,74,0.00,,,0.00,WUHU216HW,2013-06-22 06:53:00,
2013-06-22 01:54:00,78.5,69.5,29.93,SSW,203,6.3,9.6,74,0.00,,,0.00,WUHU216HW,2013-06-22 06:54:00,
2013-06-22 01:55:00,78.5,69.5,29.93,SSW,203,6.3,9.6,74,0.00,,,0.00,WUHU216HW,2013-06-22 06:55:00,
2013-06-22 01:56:00,78.5,69.5,29.93,SW,225,4.3,8.7,74,0.00,,,0.00,WUHU216HW,2013-06-22 06:56:00,
2013-06-22 01:57:00,78.5,69.5,29.93,SSE,158,5.1,8.7,74,0.00,,,0.00,WUHU216HW,2013-06-22 06:57:00,
2013-06-22 01:58:00,78.5,69.5,29.93,South,180,6.0,8.7,74,0.00,,,0.00,WUHU216HW,2013-06-22 06:58:00,
2013-06-22 01:59:00,78.5,69.5,29.93,SW,225,6.3,10.5,74,0.00,,,0.00,WUHU216HW,2013-06-22 06:59:00,
2013-06-22 02:00:00,78.5,69.5,29.93,South,180,7.4,10.5,74,0.00,,,0.00,WUHU216HW,2013-06-22 07:00:00,
2013-06-22 02:01:00,78.5,69.5,29.93,SSE,158,4.0,10.5,74,0.00,,,0.00,WUHU216HW,2013-06-22 07:01:00,
2013-06-22 02:02:00,78.5,69.0,29.93,South,180,3.4,10.5,73,0.00,,,0.00,WUHU216HW,2013-06-22 07:02:00,
2013-06-22 02:03:00,78.5,69.5,29.93,SSE,158,3.4,10.5,74,0.00,,,0.00,WUHU216HW,2013-06-22 07:03:00,
2013-06-22 02:05:00,78.7,69.2,29.93,South,180,5.4,11.0,73,0.00,,,0.00,WUHU216HW,2013-06-22 07:05:00,
2013-06-22 02:07:00,78.5,69.0,29.93,South,180,4.9,11.0,73,0.00,,,0.00,WUHU216HW,2013-06-22 07:07:00,
2013-06-22 02:08:00,78.7,69.2,29.93,SW,225,6.3,11.0,73,0.00,,,0.00,WUHU216HW,2013-06-22 07:08:00,
2013-06-22 02:10:00,78.7,69.2,29.93,South,180,3.1,11.0,73,0.00,,,0.00,WUHU216HW,2013-06-22 07:10:00,
2013-06-22 02:12:00,78.7,69.2,29.93,SSW,203,6.5,11.0,73,0.00,,,0.00,WUHU216HW,2013-06-22 07:12:00,
2013-06-22 02:13:00,78.5,69.0,29.93,SSW,203,4.5,11.0,73,0.00,,,0.00,WUHU216HW,2013-06-22 07:13:00,
2013-06-22 02:15:00,78.7,68.9,29.93,WNW,293,12.8,13.9,72,0.00,,,0.00,WUHU216HW,2013-06-22 07:15:00,
2013-06-22 02:17:00,78.8,69.0,29.93,South,180,8.1,13.9,72,0.00,,,0.00,WUHU216HW,2013-06-22 07:17:00,
2013-06-22 02:18:00,78.8,69.0,29.93,SSE,158,8.7,13.9,72,0.00,,,0.00,WUHU216HW,2013-06-22 07:18:00,
2013-06-22 02:20:00,78.8,68.6,29.93,South,180,6.7,13.9,71,0.00,,,0.00,WUHU216HW,2013-06-22 07:20:00,
2013-06-22 02:21:00,78.8,68.6,29.93,South,180,6.7,13.9,71,0.00,,,0.00,WUHU216HW,2013-06-22 07:21:00,
2013-06-22 02:23:00,78.8,69.0,29.93,SE,135,4.7,13.9,72,0.00,,,0.00,WUHU216HW,2013-06-22 07:23:00,
2013-06-22 02:24:00,78.8,68.6,29.93,West,270,5.8,13.9,71,0.00,,,0.00,WUHU216HW,2013-06-22 07:24:00,
2013-06-22 02:26:00,78.8,68.6,29.93,South,180,8.5,10.3,71,0.00,,,0.00,WUHU216HW,2013-06-22 07:26:00,
2013-06-22 02:28:00,78.7,68.5,29.93,SW,225,9.4,11.2,71,0.00,,,0.00,WUHU216HW,2013-06-22 07:28:00,
2013-06-22 02:29:00,78.8,68.6,29.93,SSE,158,5.4,11.2,71,0.00,,,0.00,WUHU216HW,2013-06-22 07:29:00,
2013-06-22 02:31:00,78.8,68.6,29.93,SSW,203,2.9,11.2,71,0.00,,,0.00,WUHU216HW,2013-06-22 07:31:00,
2013-06-22 02:33:00,78.8,68.6,29.93,SSE,158,3.4,11.2,71,0.00,,,0.00,WUHU216HW,2013-06-22 07:33:00,
2013-06-22 02:34:00,78.8,68.6,29.93,South,180,6.7,11.2,71,0.00,,,0.00,WUHU216HW,2013-06-22 07:34:00,
2013-06-22 02:36:00,78.8,68.6,29.93,South,180,2.5,11.2,71,0.00,,,0.00,WUHU216HW,2013-06-22 07:36:00,
2013-06-22 02:38:00,78.8,68.6,29.93,South,180,5.4,8.7,71,0.00,,,0.00,WUHU216HW,2013-06-22 07:38:00,
2013-06-22 02:39:00,78.8,68.6,29.93,SSW,203,4.7,8.7,71,0.00,,,0.00,WUHU216HW,2013-06-22 07:39:00,
2013-06-22 02:41:00,78.8,68.6,29.93,SSW,203,5.8,10.7,71,0.00,,,0.00,WUHU216HW,2013-06-22 07:41:00,
2013-06-22 02:43:00,78.8,68.6,29.93,WSW,248,3.6,14.3,71,0.00,,,0.00,WUHU216HW,2013-06-22 07:43:00,
2013-06-22 02:44:00,78.8,68.6,29.93,SSW,203,2.7,14.3,71,0.00,,,0.00,WUHU216HW,2013-06-22 07:44:00,
2013-06-22 02:46:00,78.8,68.6,29.93,SSW,203,6.9,14.3,71,0.00,,,0.00,WUHU216HW,2013-06-22 07:46:00,
2013-06-22 02:48:00,78.8,68.6,29.93,SSE,158,6.0,14.3,71,0.00,,,0.00,WUHU216HW,2013-06-22 07:48:00,
2013-06-22 02:49:00,78.8,68.6,29.93,SSE,158,6.0,14.3,71,0.00,,,0.00,WUHU216HW,2013-06-22 07:49:00,
2013-06-22 02:51:00,78.8,68.6,29.93,South,180,4.5,14.3,71,0.00,,,0.00,WUHU216HW,2013-06-22 07:51:00,
2013-06-22 02:52:00,78.8,68.6,29.93,SSE,158,6.5,14.3,71,0.00,,,0.00,WUHU216HW,2013-06-22 07:52:00,
2013-06-22 02:54:00,78.8,68.6,29.93,SSW,203,9.8,12.8,71,0.00,,,0.00,WUHU216HW,2013-06-22 07:54:00,
2013-06-22 02:56:00,78.8,68.6,29.93,South,180,6.0,11.4,71,0.00,,,0.00,WUHU216HW,2013-06-22 07:56:00,
2013-06-22 02:57:00,78.8,68.6,29.93,SSE,158,9.8,13.0,71,0.00,,,0.00,WUHU216HW,2013-06-22 07:57:00,
2013-06-22 02:59:00,78.8,68.6,29.93,WSW,248,7.6,13.0,71,0.00,,,0.00,WUHU216HW,2013-06-22 07:59:00,
2013-06-22 03:02:00,78.8,68.6,29.93,SSW,203,5.6,13.0,71,0.00,,,0.00,WUHU216HW,2013-06-22 08:02:00,
2013-06-22 03:04:00,78.8,68.6,29.93,SSE,158,8.5,13.0,71,0.00,,,0.00,WUHU216HW,2013-06-22 08:04:00,
2013-06-22 03:07:00,78.8,68.6,29.93,SSE,158,6.9,13.0,71,0.00,,,0.00,WUHU216HW,2013-06-22 08:07:00,
2013-06-22 03:09:00,78.8,68.6,29.93,SSE,158,5.8,12.3,71,0.00,,,0.00,WUHU216HW,2013-06-22 08:09:00,
2013-06-22 03:10:00,78.8,68.6,29.93,South,180,8.1,12.3,71,0.00,,,0.00,WUHU216HW,2013-06-22 08:10:00,
2013-06-22 03:12:00,78.8,68.6,29.93,SSE,158,6.9,12.3,71,0.00,,,0.00,WUHU216HW,2013-06-22 08:12:00,
2013-06-22 03:13:00,78.8,68.6,29.93,SSW,203,12.5,12.5,71,0.00,,,0.00,WUHU216HW,2013-06-22 08:13:00,
2013-06-22 03:15:00,78.8,68.6,29.93,South,180,7.2,12.5,71,0.00,,,0.00,WUHU216HW,2013-06-22 08:15:00,
2013-06-22 03:17:00,78.8,68.6,29.93,South,180,9.8,12.5,71,0.00,,,0.00,WUHU216HW,2013-06-22 08:17:00,
2013-06-22 03:18:00,78.8,68.6,29.93,SSE,158,3.6,12.5,71,0.00,,,0.00,WUHU216HW,2013-06-22 08:18:00,
2013-06-22 03:20:00,78.8,68.6,29.93,SSW,203,9.6,12.5,71,0.00,,,0.00,WUHU216HW,2013-06-22 08:20:00,
2013-06-22 03:22:00,78.8,68.6,29.93,South,180,5.4,12.5,71,0.00,,,0.00,WUHU216HW,2013-06-22 08:22:00,
2013-06-22 03:23:00,78.8,68.6,29.93,South,180,4.9,10.5,71,0.00,,,0.00,WUHU216HW,2013-06-22 08:23:00,
2013-06-22 03:25:00,78.7,68.5,29.93,South,180,9.6,10.5,71,0.00,,,0.00,WUHU216HW,2013-06-22 08:25:00,
2013-06-22 03:27:00,78.7,68.5,29.93,SSW,203,5.4,10.5,71,0.00,,,0.00,WUHU216HW,2013-06-22 08:27:00,
2013-06-22 03:28:00,78.7,68.5,29.93,South,180,9.8,10.5,71,0.00,,,0.00,WUHU216HW,2013-06-22 08:28:00,
2013-06-22 03:30:00,78.7,68.5,29.93,WSW,248,7.6,10.1,71,0.00,,,0.00,WUHU216HW,2013-06-22 08:30:00,
2013-06-22 03:31:00,78.7,68.9,29.92,SSW,203,5.1,10.1,72,0.00,,,0.00,WUHU216HW,2013-06-22 08:31:00,
2013-06-22 03:32:00,78.7,68.5,29.92,South,180,7.4,10.1,71,0.00,,,0.00,WUHU216HW,2013-06-22 08:32:00,
2013-06-22 03:33:00,78.7,68.9,29.93,WSW,248,2.5,10.1,72,0.00,,,0.00,WUHU216HW,2013-06-22 08:33:00,
2013-06-22 03:36:00,78.5,68.7,29.93,South,180,1.8,10.1,72,0.00,,,0.00,WUHU216HW,2013-06-22 08:36:00,
2013-06-22 03:37:00,78.5,68.7,29.92,WSW,248,4.5,10.1,72,0.00,,,0.00,WUHU216HW,2013-06-22 08:37:00,
2013-06-22 03:38:00,78.5,68.7,29.92,SSW,203,7.2,10.1,72,0.00,,,0.00,WUHU216HW,2013-06-22 08:38:00,
2013-06-22 03:41:00,78.3,68.5,29.92,South,180,9.8,11.9,72,0.00,,,0.00,WUHU216HW,2013-06-22 08:41:00,
2013-06-22 03:42:00,78.5,68.7,29.92,SW,225,6.5,11.9,72,0.00,,,0.00,WUHU216HW,2013-06-22 08:42:00,
2013-06-22 03:43:00,78.3,68.5,29.93,SSW,203,7.2,11.9,72,0.00,,,0.00,WUHU216HW,2013-06-22 08:43:00,
2013-06-22 03:46:00,78.5,68.7,29.92,SSW,203,3.8,11.9,72,0.00,,,0.00,WUHU216HW,2013-06-22 08:46:00,
2013-06-22 03:47:00,78.5,68.7,29.92,SSE,158,3.4,11.9,72,0.00,,,0.00,WUHU216HW,2013-06-22 08:47:00,
2013-06-22 03:48:00,78.5,68.7,29.92,SW,225,5.6,11.9,72,0.00,,,0.00,WUHU216HW,2013-06-22 08:48:00,
2013-06-22 03:51:00,78.3,68.5,29.92,South,180,6.3,11.4,72,0.00,,,0.00,WUHU216HW,2013-06-22 08:51:00,
2013-06-22 03:52:00,78.3,68.5,29.92,SSE,158,2.0,10.1,72,0.00,,,0.00,WUHU216HW,2013-06-22 08:52:00,
2013-06-22 03:53:00,78.3,68.5,29.92,SSE,158,5.4,10.1,72,0.00,,,0.00,WUHU216HW,2013-06-22 08:53:00,
2013-06-22 03:56:00,78.3,68.5,29.92,South,180,6.9,9.2,72,0.00,,,0.00,WUHU216HW,2013-06-22 08:56:00,
2013-06-22 03:57:00,78.3,68.5,29.92,SW,225,5.4,9.2,72,0.00,,,0.00,WUHU216HW,2013-06-22 08:57:00,
2013-06-22 03:58:00,78.3,68.5,29.93,West,270,5.4,9.2,72,0.00,,,0.00,WUHU216HW,2013-06-22 08:58:00,
2013-06-22 03:59:00,78.3,68.5,29.93,South,180,2.2,9.2,72,0.00,,,0.00,WUHU216HW,2013-06-22 08:59:00,
2013-06-22 04:01:00,78.3,68.5,29.92,SSE,158,3.4,11.4,72,0.00,,,0.00,WUHU216HW,2013-06-22 09:01:00,
2013-06-22 04:02:00,78.3,68.5,29.93,South,180,1.6,11.4,72,0.00,,,0.00,WUHU216HW,2013-06-22 09:02:00,
2013-06-22 04:03:00,78.3,68.5,29.93,WSW,248,7.8,11.4,72,0.00,,,0.00,WUHU216HW,2013-06-22 09:03:00,
2013-06-22 04:04:00,78.3,68.5,29.93,WSW,248,7.8,11.4,72,0.00,,,0.00,WUHU216HW,2013-06-22 09:04:00,
2013-06-22 04:06:00,78.3,68.5,29.93,SSE,158,6.3,11.4,72,0.00,,,0.00,WUHU216HW,2013-06-22 09:06:00,
2013-06-22 04:07:00,78.3,68.5,29.93,South,180,6.7,11.4,72,0.00,,,0.00,WUHU216HW,2013-06-22 09:07:00,
2013-06-22 04:08:00,78.3,68.5,29.93,South,180,7.2,11.4,72,0.00,,,0.00,WUHU216HW,2013-06-22 09:08:00,
2013-06-22 04:09:00,78.3,68.5,29.93,SSW,203,5.4,11.4,72,0.00,,,0.00,WUHU216HW,2013-06-22 09:09:00,
2013-06-22 04:11:00,78.1,68.3,29.93,South,180,6.5,10.7,72,0.00,,,0.00,WUHU216HW,2013-06-22 09:11:00,
2013-06-22 04:12:00,78.1,68.3,29.93,SSW,203,1.6,10.7,72,0.00,,,0.00,WUHU216HW,2013-06-22 09:12:00,
2013-06-22 04:14:00,78.1,68.3,29.93,SW,225,3.4,8.3,72,0.00,,,0.00,WUHU216HW,2013-06-22 09:14:00,
2013-06-22 04:16:00,78.1,68.3,29.93,SW,225,6.0,7.4,72,0.00,,,0.00,WUHU216HW,2013-06-22 09:16:00,
2013-06-22 04:17:00,78.1,68.3,29.93,South,180,4.3,7.4,72,0.00,,,0.00,WUHU216HW,2013-06-22 09:17:00,
2013-06-22 04:19:00,77.9,68.2,29.93,SSE,158,0.9,6.9,72,0.00,,,0.00,WUHU216HW,2013-06-22 09:19:00,
2013-06-22 04:22:00,78.1,68.3,29.93,South,180,5.4,7.2,72,0.00,,,0.00,WUHU216HW,2013-06-22 09:22:00,
2013-06-22 04:24:00,77.9,68.2,29.93,ESE,113,3.1,9.2,72,0.00,,,0.00,WUHU216HW,2013-06-22 09:24:00,
2013-06-22 04:27:00,77.9,68.2,29.93,South,180,5.6,9.2,72,0.00,,,0.00,WUHU216HW,2013-06-22 09:27:00,
2013-06-22 04:29:00,77.9,68.2,29.93,SSW,203,4.3,9.2,72,0.00,,,0.00,WUHU216HW,2013-06-22 09:29:00,
2013-06-22 04:32:00,77.9,68.2,29.93,South,180,3.1,9.2,72,0.00,,,0.00,WUHU216HW,2013-06-22 09:32:00,
2013-06-22 04:33:00,77.9,68.2,29.93,SSW,203,8.9,9.2,72,0.00,,,0.00,WUHU216HW,2013-06-22 09:33:00,
2013-06-22 04:34:00,77.9,68.2,29.93,SW,225,1.8,8.9,72,0.00,,,0.00,WUHU216HW,2013-06-22 09:34:00,
2013-06-22 04:37:00,77.8,68.1,29.94,South,180,2.7,8.9,72,0.00,,,0.00,WUHU216HW,2013-06-22 09:37:00,
2013-06-22 04:38:00,77.8,68.1,29.94,South,180,2.7,8.9,72,0.00,,,0.00,WUHU216HW,2013-06-22 09:38:00,
2013-06-22 04:39:00,77.8,68.1,29.94,SSE,158,1.8,8.9,72,0.00,,,0.00,WUHU216HW,2013-06-22 09:39:00,
2013-06-22 04:42:00,77.6,68.2,29.94,SSW,203,3.4,8.9,73,0.00,,,0.00,WUHU216HW,2013-06-22 09:42:00,
2013-06-22 04:43:00,77.6,68.2,29.94,SSW,203,5.4,6.3,73,0.00,,,0.00,WUHU216HW,2013-06-22 09:43:00,
2013-06-22 04:44:00,77.6,68.2,29.94,SSW,203,1.1,6.3,73,0.00,,,0.00,WUHU216HW,2013-06-22 09:44:00,
2013-06-22 04:45:00,77.6,68.2,29.94,SSW,203,4.0,6.3,73,0.00,,,0.00,WUHU216HW,2013-06-22 09:45:00,
2013-06-22 04:48:00,77.4,68.0,29.94,SSW,203,3.4,6.5,73,0.00,,,0.00,WUHU216HW,2013-06-22 09:48:00,
2013-06-22 04:49:00,77.4,68.5,29.94,SE,135,3.4,7.4,74,0.00,,,0.00,WUHU216HW,2013-06-22 09:49:00,
2013-06-22 04:50:00,77.4,68.0,29.94,SSW,203,2.5,7.4,73,0.00,,,0.00,WUHU216HW,2013-06-22 09:50:00,
2013-06-22 04:53:00,77.4,68.0,29.94,SSW,203,2.5,7.4,73,0.00,,,0.00,WUHU216HW,2013-06-22 09:53:00,
2013-06-22 04:55:00,77.4,68.5,29.94,SW,225,2.0,7.4,74,0.00,,,0.00,WUHU216HW,2013-06-22 09:55:00,
2013-06-22 04:58:00,77.4,68.5,29.94,SSE,158,3.1,7.4,74,0.00,,,0.00,WUHU216HW,2013-06-22 09:58:00,
2013-06-22 04:59:00,77.4,68.5,29.95,SSE,158,0.2,7.4,74,0.00,,,0.00,WUHU216HW,2013-06-22 09:59:00,
2013-06-22 05:00:00,77.4,68.5,29.95,South,180,2.5,7.4,74,0.00,,,0.00,WUHU216HW,2013-06-22 10:00:00,
2013-06-22 05:03:00,77.2,68.3,29.95,South,180,1.1,7.4,74,0.00,,,0.00,WUHU216HW,2013-06-22 10:03:00,
2013-06-22 05:04:00,77.2,68.3,29.95,South,180,4.3,7.4,74,0.00,,,0.00,WUHU216HW,2013-06-22 10:04:00,
2013-06-22 05:05:00,77.2,68.3,29.95,SSW,203,3.1,7.4,74,0.00,,,0.00,WUHU216HW,2013-06-22 10:05:00,
2013-06-22 05:08:00,77.0,68.1,29.95,SSE,158,2.9,5.4,74,0.00,,,0.00,WUHU216HW,2013-06-22 10:08:00,
2013-06-22 05:09:00,77.0,68.1,29.95,WSW,248,7.2,7.2,74,0.00,,,0.00,WUHU216HW,2013-06-22 10:09:00,
2013-06-22 05:10:00,77.0,68.1,29.95,South,180,2.9,7.2,74,0.00,,,0.00,WUHU216HW,2013-06-22 10:10:00,
2013-06-22 05:11:00,77.0,68.1,29.95,SSW,203,0.0,7.2,74,0.00,,,0.00,WUHU216HW,2013-06-22 10:11:00,
2013-06-22 05:13:00,77.0,68.1,29.95,South,180,4.9,7.2,74,0.00,,,0.00,WUHU216HW,2013-06-22 10:13:00,
2013-06-22 05:15:00,76.9,68.3,29.95,East,90,0.0,7.2,75,0.00,,,0.00,WUHU216HW,2013-06-22 10:15:00,
2013-06-22 05:16:00,76.9,68.3,29.95,WSW,248,1.8,7.2,75,0.00,,,0.00,WUHU216HW,2013-06-22 10:16:00,
2013-06-22 05:18:00,76.9,68.0,29.95,SSW,203,0.0,7.2,74,0.00,,,0.00,WUHU216HW,2013-06-22 10:18:00,
2013-06-22 05:20:00,76.7,68.1,29.95,South,180,2.9,4.9,75,0.00,,,0.00,WUHU216HW,2013-06-22 10:20:00,
2013-06-22 05:21:00,76.7,68.1,29.95,South,180,2.2,4.9,75,0.00,,,0.00,WUHU216HW,2013-06-22 10:21:00,
2013-06-22 05:23:00,76.7,68.1,29.95,South,180,3.4,4.3,75,0.00,,,0.00,WUHU216HW,2013-06-22 10:23:00,
2013-06-22 05:25:00,76.7,68.1,29.95,SSW,203,2.7,4.3,75,0.00,,,0.00,WUHU216HW,2013-06-22 10:25:00,
2013-06-22 05:26:00,76.7,68.1,29.95,SSE,158,4.9,4.9,75,0.00,,,0.00,WUHU216HW,2013-06-22 10:26:00,
2013-06-22 05:28:00,76.7,68.1,29.95,SW,225,1.8,5.1,75,0.00,,,0.00,WUHU216HW,2013-06-22 10:28:00,
2013-06-22 05:30:00,76.7,68.1,29.95,South,180,0.0,5.1,75,0.00,,,0.00,WUHU216HW,2013-06-22 10:30:00,
2013-06-22 05:31:00,76.5,68.0,29.95,South,180,0.0,5.1,75,0.00,,,0.00,WUHU216HW,2013-06-22 10:31:00,
2013-06-22 05:32:00,76.5,68.0,29.95,South,180,0.4,5.1,75,0.00,,,0.00,WUHU216HW,2013-06-22 10:32:00,
2013-06-22 05:34:00,76.3,67.8,29.95,SSW,203,4.3,5.1,75,0.00,,,0.00,WUHU216HW,2013-06-22 10:34:00,
2013-06-22 05:35:00,76.3,67.8,29.95,SE,135,0.0,5.1,75,0.00,,,0.00,WUHU216HW,2013-06-22 10:35:00,
2013-06-22 05:36:00,76.3,67.8,29.95,SE,135,1.1,5.1,75,0.00,,,0.00,WUHU216HW,2013-06-22 10:36:00,
2013-06-22 05:37:00,76.3,67.8,29.95,SSE,158,2.5,4.7,75,0.00,,,0.00,WUHU216HW,2013-06-22 10:37:00,
2013-06-22 05:39:00,76.3,67.8,29.95,SSE,158,3.6,4.7,75,0.00,,,0.00,WUHU216HW,2013-06-22 10:39:00,
2013-06-22 05:41:00,76.3,68.2,29.95,South,180,1.8,4.7,76,0.00,,,0.00,WUHU216HW,2013-06-22 10:41:00,
2013-06-22 05:42:00,76.3,68.2,29.95,SSE,158,1.1,4.7,76,0.00,,,0.00,WUHU216HW,2013-06-22 10:42:00,
2013-06-22 05:44:00,76.3,68.2,29.95,South,180,2.7,4.3,76,0.00,,,0.00,WUHU216HW,2013-06-22 10:44:00,
2013-06-22 05:46:00,76.1,68.1,29.95,SSW,203,1.1,4.0,76,0.00,,,0.00,WUHU216HW,2013-06-22 10:46:00,
2013-06-22 05:47:00,76.1,68.1,29.95,SSE,158,3.1,4.0,76,0.00,,,0.00,WUHU216HW,2013-06-22 10:47:00,
2013-06-22 05:48:00,76.1,68.1,29.95,South,180,2.9,4.7,76,0.00,,,0.00,WUHU216HW,2013-06-22 10:48:00,
2013-06-22 05:50:00,76.1,68.1,29.95,South,180,3.8,4.7,76,0.00,,,0.00,WUHU216HW,2013-06-22 10:50:00,
2013-06-22 05:51:00,76.0,67.9,29.95,South,180,1.8,4.7,76,0.00,,,0.00,WUHU216HW,2013-06-22 10:51:00,
2013-06-22 05:52:00,76.1,68.1,29.95,SE,135,1.8,4.7,76,0.00,,,0.00,WUHU216HW,2013-06-22 10:52:00,
2013-06-22 05:54:00,76.0,67.9,29.95,South,180,2.5,4.7,76,0.00,,,0.00,WUHU216HW,2013-06-22 10:54:00,
2013-06-22 05:55:00,76.0,67.9,29.95,SSE,158,3.8,4.7,76,0.00,,,0.00,WUHU216HW,2013-06-22 10:55:00,
2013-06-22 05:56:00,76.0,68.2,29.95,South,180,2.2,4.7,77,0.00,,,0.00,WUHU216HW,2013-06-22 10:56:00,
2013-06-22 05:57:00,76.0,67.9,29.95,SSE,158,2.7,4.7,76,0.00,,,0.00,WUHU216HW,2013-06-22 10:57:00,
2013-06-22 06:00:00,75.8,68.0,29.95,South,180,4.9,4.9,77,0.00,,,0.00,WUHU216HW,2013-06-22 11:00:00,
2013-06-22 06:01:00,75.8,68.0,29.94,South,180,3.1,4.9,77,0.00,,,0.00,WUHU216HW,2013-06-22 11:01:00,
2013-06-22 06:02:00,75.8,68.0,29.95,SSE,158,2.0,4.9,77,0.00,,,0.00,WUHU216HW,2013-06-22 11:02:00,
2013-06-22 06:05:00,75.8,68.0,29.94,SSW,203,7.8,7.8,77,0.00,,,0.00,WUHU216HW,2013-06-22 11:05:00,
2013-06-22 06:06:00,75.8,68.0,29.94,SSW,203,4.0,7.8,77,0.00,,,0.00,WUHU216HW,2013-06-22 11:06:00,
2013-06-22 06:07:00,75.8,68.5,29.94,East,90,2.5,7.8,78,0.00,,,0.00,WUHU216HW,2013-06-22 11:07:00,
2013-06-22 06:08:00,75.8,68.0,29.94,SSE,158,4.7,7.8,77,0.00,,,0.00,WUHU216HW,2013-06-22 11:08:00,
2013-06-22 06:10:00,75.8,68.5,29.94,SSW,203,2.7,7.8,78,0.00,,,0.00,WUHU216HW,2013-06-22 11:10:00,
2013-06-22 06:11:00,75.8,68.0,29.94,South,180,4.5,7.8,77,0.00,,,0.00,WUHU216HW,2013-06-22 11:11:00,
2013-06-22 06:12:00,75.8,68.0,29.94,NE,45,5.4,7.8,77,0.00,,,0.00,WUHU216HW,2013-06-22 11:12:00,
2013-06-22 06:13:00,75.8,68.5,29.94,SSW,203,2.2,7.8,78,0.00,,,0.00,WUHU216HW,2013-06-22 11:13:00,
2013-06-22 06:16:00,75.8,68.0,29.94,South,180,6.3,6.3,77,0.00,,,0.00,WUHU216HW,2013-06-22 11:16:00,
2013-06-22 06:17:00,75.6,68.0,29.94,SE,135,2.5,6.3,77,0.00,,,0.00,WUHU216HW,2013-06-22 11:17:00,
2013-06-22 06:18:00,75.8,68.0,29.94,SW,225,4.3,6.3,77,0.00,,,0.00,WUHU216HW,2013-06-22 11:18:00,
2013-06-22 06:21:00,75.8,68.5,29.94,South,180,4.3,6.3,78,0.00,,,0.00,WUHU216HW,2013-06-22 11:21:00,
2013-06-22 06:22:00,75.8,68.5,29.94,South,180,2.9,6.3,78,0.00,,,0.00,WUHU216HW,2013-06-22 11:22:00,
2013-06-22 06:23:00,75.8,68.5,29.94,SW,225,2.2,6.3,78,0.00,,,0.00,WUHU216HW,2013-06-22 11:23:00,
2013-06-22 06:26:00,76.0,68.7,29.94,SSE,158,3.4,4.7,78,0.00,,,0.00,WUHU216HW,2013-06-22 11:26:00,
2013-06-22 06:28:00,76.0,68.2,29.94,SSE,158,1.3,4.7,77,0.00,,,0.00,WUHU216HW,2013-06-22 11:28:00,
2013-06-22 06:31:00,76.3,68.6,29.94,SE,135,1.8,5.4,77,0.00,,,0.00,WUHU216HW,2013-06-22 11:31:00,
2013-06-22 06:33:00,76.5,68.8,29.94,South,180,2.5,5.4,77,0.00,,,0.00,WUHU216HW,2013-06-22 11:33:00,
2013-06-22 06:36:00,76.7,68.5,29.94,SSE,158,1.8,6.3,76,0.00,,,0.00,WUHU216HW,2013-06-22 11:36:00,
2013-06-22 06:38:00,76.9,68.7,29.94,South,180,3.8,6.3,76,0.00,,,0.00,WUHU216HW,2013-06-22 11:38:00,
2013-06-22 06:39:00,77.0,68.9,29.94,SSW,203,2.9,6.3,76,0.00,,,0.00,WUHU216HW,2013-06-22 11:39:00,
2013-06-22 06:41:00,77.0,68.9,29.95,South,180,2.0,6.3,76,0.00,,,0.00,WUHU216HW,2013-06-22 11:41:00,
2013-06-22 06:43:00,77.4,68.9,29.94,SSE,158,5.6,6.3,75,0.00,,,0.00,WUHU216HW,2013-06-22 11:43:00,
2013-06-22 06:44:00,77.4,68.9,29.94,SE,135,0.2,6.3,75,0.00,,,0.00,WUHU216HW,2013-06-22 11:44:00,
2013-06-22 06:46:00,77.6,69.0,29.94,SSW,203,0.7,5.6,75,0.00,,,0.00,WUHU216HW,2013-06-22 11:46:00,
2013-06-22 06:48:00,77.8,69.2,29.95,South,180,2.2,5.6,75,0.00,,,0.00,WUHU216HW,2013-06-22 11:48:00,
2013-06-22 06:49:00,77.8,69.2,29.95,South,180,2.7,5.6,75,0.00,,,0.00,WUHU216HW,2013-06-22 11:49:00,
2013-06-22 06:52:00,77.8,69.2,29.95,SE,135,2.9,5.6,75,0.00,,,0.00,WUHU216HW,2013-06-22 11:52:00,
2013-06-22 06:53:00,77.6,69.0,29.95,SSE,158,2.5,4.0,75,0.00,,,0.00,WUHU216HW,2013-06-22 11:53:00,
2013-06-22 06:54:00,77.6,69.0,29.95,South,180,3.8,4.0,75,0.00,,,0.00,WUHU216HW,2013-06-22 11:54:00,
2013-06-22 06:57:00,77.2,68.7,29.95,SE,135,0.0,4.0,75,0.00,,,0.00,WUHU216HW,2013-06-22 11:57:00,
2013-06-22 06:59:00,77.2,68.7,29.95,ESE,113,2.2,4.0,75,0.00,,,0.00,WUHU216HW,2013-06-22 11:59:00,
2013-06-22 07:02:00,77.2,68.7,29.95,East,90,1.1,3.8,75,0.00,,,0.00,WUHU216HW,2013-06-22 12:02:00,
2013-06-22 07:04:00,77.4,68.9,29.95,ESE,113,1.1,3.8,75,0.00,,,0.00,WUHU216HW,2013-06-22 12:04:00,
2013-06-22 07:05:00,77.4,68.9,29.95,ESE,113,2.0,4.7,75,0.00,,,0.00,WUHU216HW,2013-06-22 12:05:00,
2013-06-22 07:07:00,77.8,69.2,29.95,SE,135,4.0,4.7,75,0.00,,,0.00,WUHU216HW,2013-06-22 12:07:00,
2013-06-22 07:09:00,78.1,69.5,29.96,SE,135,1.1,5.6,75,0.00,,,0.00,WUHU216HW,2013-06-22 12:09:00,
2013-06-22 07:10:00,78.3,69.7,29.96,South,180,2.0,5.6,75,0.00,,,0.00,WUHU216HW,2013-06-22 12:10:00,
2013-06-22 07:12:00,79.0,70.0,29.96,South,180,3.1,5.6,74,0.00,,,0.00,WUHU216HW,2013-06-22 12:12:00,
2013-06-22 07:14:00,79.4,69.9,29.96,SSE,158,4.5,5.6,73,0.00,,,0.00,WUHU216HW,2013-06-22 12:14:00,
2013-06-22 07:15:00,79.6,70.1,29.96,South,180,3.1,5.6,73,0.00,,,0.00,WUHU216HW,2013-06-22 12:15:00,
2013-06-22 07:17:00,80.1,70.7,29.96,South,180,0.7,5.6,73,0.00,,,0.00,WUHU216HW,2013-06-22 12:17:00,
2013-06-22 07:19:00,80.5,70.7,29.96,SSE,158,3.4,5.1,72,0.00,,,0.00,WUHU216HW,2013-06-22 12:19:00,
2013-06-22 07:20:00,80.6,70.4,29.97,SSE,158,2.2,5.1,71,0.00,,,0.00,WUHU216HW,2013-06-22 12:20:00,
2013-06-22 07:21:00,80.8,70.6,29.97,SW,225,0.0,5.1,71,0.00,,,0.00,WUHU216HW,2013-06-22 12:21:00,
2013-06-22 07:22:00,81.0,70.7,29.97,North,0,0.0,5.1,71,0.00,,,0.00,WUHU216HW,2013-06-22 12:22:00,
2013-06-22 07:24:00,81.2,70.9,29.97,ESE,113,2.9,5.1,71,0.00,,,0.00,WUHU216HW,2013-06-22 12:24:00,
2013-06-22 07:25:00,81.4,70.7,29.97,SE,135,0.0,5.1,70,0.00,,,0.00,WUHU216HW,2013-06-22 12:25:00,
2013-06-22 07:26:00,81.5,70.8,29.97,East,90,1.8,5.1,70,0.00,,,0.00,WUHU216HW,2013-06-22 12:26:00,
2013-06-22 07:27:00,81.7,71.0,29.97,SE,135,1.6,5.1,70,0.00,,,0.00,WUHU216HW,2013-06-22 12:27:00,
2013-06-22 07:29:00,81.9,70.8,29.97,SSW,203,0.9,3.8,69,0.00,,,0.00,WUHU216HW,2013-06-22 12:29:00,
2013-06-22 07:30:00,82.1,70.8,29.97,SSE,158,3.1,3.4,69,0.00,,,0.00,WUHU216HW,2013-06-22 12:30:00,
2013-06-22 07:31:00,82.1,70.8,29.97,SE,135,0.0,3.4,69,0.00,,,0.00,WUHU216HW,2013-06-22 12:31:00,
2013-06-22 07:33:00,82.4,71.6,29.97,South,180,1.1,3.4,70,0.00,,,0.00,WUHU216HW,2013-06-22 12:33:00,
2013-06-22 07:34:00,82.3,71.0,29.97,East,90,1.1,3.4,69,0.00,,,0.00,WUHU216HW,2013-06-22 12:34:00,
2013-06-22 07:35:00,82.4,71.2,29.97,SSE,158,8.3,8.3,69,0.00,,,0.00,WUHU216HW,2013-06-22 12:35:00,
2013-06-22 07:36:00,82.3,70.6,29.97,South,180,1.6,8.3,68,0.00,,,0.00,WUHU216HW,2013-06-22 12:36:00,
2013-06-22 07:38:00,82.3,70.6,29.97,SE,135,2.5,8.3,68,0.00,,,0.00,WUHU216HW,2013-06-22 12:38:00,
2013-06-22 07:39:00,82.4,71.2,29.97,SE,135,3.4,8.3,69,0.00,,,0.00,WUHU216HW,2013-06-22 12:39:00,
2013-06-22 07:40:00,82.4,71.2,29.97,SSE,158,3.6,8.3,69,0.00,,,0.00,WUHU216HW,2013-06-22 12:40:00,
2013-06-22 07:41:00,82.4,71.2,29.97,SSE,158,4.0,8.3,69,0.00,,,0.00,WUHU216HW,2013-06-22 12:41:00,
2013-06-22 07:42:00,82.4,71.2,29.97,SSE,158,4.0,8.3,69,0.00,,,0.00,WUHU216HW,2013-06-22 12:42:00,
2013-06-22 07:43:00,82.4,71.2,29.97,South,180,3.1,8.3,69,0.00,,,0.00,WUHU216HW,2013-06-22 12:43:00,
2013-06-22 07:44:00,82.4,71.2,29.97,SSE,158,4.9,8.3,69,0.00,,,0.00,WUHU216HW,2013-06-22 12:44:00,
2013-06-22 07:45:00,82.4,71.2,29.96,SE,135,3.6,5.4,69,0.00,,,0.00,WUHU216HW,2013-06-22 12:45:00,
2013-06-22 07:46:00,82.4,71.2,29.96,SSW,203,3.4,5.4,69,0.00,,,0.00,WUHU216HW,2013-06-22 12:46:00,
2013-06-22 07:47:00,82.4,71.2,29.97,SSE,158,4.7,5.4,69,0.00,,,0.00,WUHU216HW,2013-06-22 12:47:00,
2013-06-22 07:48:00,82.4,71.2,29.97,SSE,158,3.1,5.4,69,0.00,,,0.00,WUHU216HW,2013-06-22 12:48:00,
2013-06-22 07:49:00,82.4,71.2,29.97,SE,135,5.4,5.4,69,0.00,,,0.00,WUHU216HW,2013-06-22 12:49:00,
2013-06-22 07:50:00,82.4,71.2,29.97,ESE,113,5.4,5.4,69,0.00,,,0.00,WUHU216HW,2013-06-22 12:50:00,
2013-06-22 07:52:00,82.4,70.7,29.97,East,90,3.1,5.4,68,0.00,,,0.00,WUHU216HW,2013-06-22 12:52:00,
2013-06-22 07:53:00,82.4,71.2,29.97,SSE,158,0.7,5.4,69,0.00,,,0.00,WUHU216HW,2013-06-22 12:53:00,
2013-06-22 07:55:00,82.4,71.2,29.97,SSW,203,5.4,5.4,69,0.00,,,0.00,WUHU216HW,2013-06-22 12:55:00,
2013-06-22 07:56:00,82.4,71.2,29.97,South,180,5.8,5.8,69,0.00,,,0.00,WUHU216HW,2013-06-22 12:56:00,
2013-06-22 07:57:00,82.6,71.4,29.97,ESE,113,3.4,5.8,69,0.00,,,0.00,WUHU216HW,2013-06-22 12:57:00,
2013-06-22 07:58:00,82.8,71.6,29.97,SSE,158,5.4,5.8,69,0.00,,,0.00,WUHU216HW,2013-06-22 12:58:00,
2013-06-22 08:00:00,82.8,71.6,29.98,SSW,203,3.4,5.8,69,0.00,,,0.00,WUHU216HW,2013-06-22 13:00:00,
2013-06-22 08:01:00,82.6,71.4,29.98,SSW,203,3.8,5.8,69,0.00,,,0.00,WUHU216HW,2013-06-22 13:01:00,
2013-06-22 08:02:00,82.8,71.6,29.98,SE,135,0.2,5.8,69,0.00,,,0.00,WUHU216HW,2013-06-22 13:02:00,
2013-06-22 08:03:00,83.0,71.7,29.98,SE,135,2.9,5.8,69,0.00,,,0.00,WUHU216HW,2013-06-22 13:03:00,
2013-06-22 08:04:00,83.3,72.1,29.98,SSW,203,0.0,5.8,69,0.00,,,0.00,WUHU216HW,2013-06-22 13:04:00,
2013-06-22 08:05:00,83.5,72.3,29.98,SSE,158,2.2,5.8,69,0.00,,,0.00,WUHU216HW,2013-06-22 13:05:00,
2013-06-22 08:06:00,83.7,72.0,29.98,SE,135,2.9,5.8,68,0.00,,,0.00,WUHU216HW,2013-06-22 13:06:00,
2013-06-22 08:07:00,83.9,72.2,29.98,SSW,203,1.8,5.8,68,0.00,,,0.00,WUHU216HW,2013-06-22 13:07:00,
2013-06-22 08:08:00,84.2,72.1,29.98,SSW,203,4.5,5.8,67,0.00,,,0.00,WUHU216HW,2013-06-22 13:08:00,
2013-06-22 08:10:00,84.4,72.3,29.98,SSE,158,2.5,5.1,67,0.00,,,0.00,WUHU216HW,2013-06-22 13:10:00,
2013-06-22 08:11:00,84.6,72.5,29.98,SSW,203,1.8,4.5,67,0.00,,,0.00,WUHU216HW,2013-06-22 13:11:00,
2013-06-22 08:12:00,84.6,72.5,29.98,SSE,158,5.1,5.1,67,0.00,,,0.00,WUHU216HW,2013-06-22 13:12:00,
2013-06-22 08:14:00,84.4,72.3,29.98,SSE,158,3.4,6.0,67,0.00,,,0.00,WUHU216HW,2013-06-22 13:14:00,
2013-06-22 08:15:00,84.4,71.8,29.98,SSE,158,2.5,6.0,66,0.00,,,0.00,WUHU216HW,2013-06-22 13:15:00,
2013-06-22 08:16:00,84.2,72.1,29.98,SSE,158,2.5,6.0,67,0.00,,,0.00,WUHU216HW,2013-06-22 13:16:00,
2013-06-22 08:17:00,84.4,72.3,29.98,SE,135,3.1,6.0,67,0.00,,,0.00,WUHU216HW,2013-06-22 13:17:00,
2013-06-22 08:19:00,84.6,72.5,29.98,SSW,203,4.3,6.0,67,0.00,,,0.00,WUHU216HW,2013-06-22 13:19:00,
2013-06-22 08:20:00,84.6,72.0,29.98,SSE,158,4.9,6.9,66,0.00,,,0.00,WUHU216HW,2013-06-22 13:20:00,
2013-06-22 08:21:00,84.4,71.8,29.98,South,180,5.8,6.9,66,0.00,,,0.00,WUHU216HW,2013-06-22 13:21:00,
2013-06-22 08:22:00,84.4,71.8,29.98,SE,135,2.9,6.9,66,0.00,,,0.00,WUHU216HW,2013-06-22 13:22:00,
2013-06-22 08:24:00,84.2,72.1,29.98,ESE,113,5.4,6.9,67,0.00,,,0.00,WUHU216HW,2013-06-22 13:24:00,
2013-06-22 08:26:00,84.2,72.1,29.98,SSE,158,1.1,6.9,67,0.00,,,0.00,WUHU216HW,2013-06-22 13:26:00,
2013-06-22 08:27:00,84.2,72.1,29.98,South,180,5.8,7.4,67,0.00,,,0.00,WUHU216HW,2013-06-22 13:27:00,
2013-06-22 08:29:00,83.9,71.3,29.98,South,180,6.0,8.3,66,0.00,,,0.00,WUHU216HW,2013-06-22 13:29:00,
2013-06-22 08:31:00,83.9,71.7,29.98,SSW,203,4.5,8.3,67,0.00,,,0.00,WUHU216HW,2013-06-22 13:31:00,
2013-06-22 08:32:00,83.9,71.7,29.98,South,180,2.2,8.3,67,0.00,,,0.00,WUHU216HW,2013-06-22 13:32:00,
2013-06-22 08:33:00,83.7,71.6,29.98,SE,135,3.8,8.3,67,0.00,,,0.00,WUHU216HW,2013-06-22 13:33:00,
2013-06-22 08:34:00,83.7,71.6,29.98,SSE,158,6.3,8.3,67,0.00,,,0.00,WUHU216HW,2013-06-22 13:34:00,
2013-06-22 08:36:00,83.5,71.4,29.98,SSW,203,7.8,9.8,67,0.00,,,0.00,WUHU216HW,2013-06-22 13:36:00,
2013-06-22 08:37:00,83.5,71.4,29.98,SSW,203,7.8,9.8,67,0.00,,,0.00,WUHU216HW,2013-06-22 13:37:00,
2013-06-22 08:38:00,83.3,71.2,29.98,SSW,203,6.0,9.8,67,0.00,,,0.00,WUHU216HW,2013-06-22 13:38:00,
2013-06-22 08:39:00,83.2,71.0,29.98,SSE,158,4.0,9.8,67,0.00,,,0.00,WUHU216HW,2013-06-22 13:39:00,
2013-06-22 08:42:00,83.0,70.8,29.98,SE,135,3.8,9.8,67,0.00,,,0.00,WUHU216HW,2013-06-22 13:42:00,
2013-06-22 08:43:00,82.8,71.1,29.98,SW,225,5.1,9.8,68,0.00,,,0.00,WUHU216HW,2013-06-22 13:43:00,
2013-06-22 08:45:00,82.6,70.9,29.98,SSE,158,4.9,9.8,68,0.00,,,0.00,WUHU216HW,2013-06-22 13:45:00,
2013-06-22 08:47:00,82.4,70.7,29.98,SE,135,6.9,10.5,68,0.00,,,0.00,WUHU216HW,2013-06-22 13:47:00,
2013-06-22 08:49:00,82.3,71.0,29.98,SSW,203,6.5,10.5,69,0.00,,,0.00,WUHU216HW,2013-06-22 13:49:00,
2013-06-22 08:50:00,82.3,71.0,29.98,East,90,4.0,10.5,69,0.00,,,0.00,WUHU216HW,2013-06-22 13:50:00,
2013-06-22 08:52:00,82.6,71.4,29.98,SSE,158,10.1,10.5,69,0.00,,,0.00,WUHU216HW,2013-06-22 13:52:00,
2013-06-22 08:53:00,82.8,71.6,29.98,South,180,5.4,10.5,69,0.00,,,0.00,WUHU216HW,2013-06-22 13:53:00,
2013-06-22 08:54:00,82.8,71.6,29.98,South,180,3.4,10.5,69,0.00,,,0.00,WUHU216HW,2013-06-22 13:54:00,
2013-06-22 08:55:00,83.0,71.7,29.98,SW,225,6.7,10.5,69,0.00,,,0.00,WUHU216HW,2013-06-22 13:55:00,
2013-06-22 08:57:00,83.2,71.9,29.98,SSE,158,6.0,10.1,69,0.00,,,0.00,WUHU216HW,2013-06-22 13:57:00,
2013-06-22 08:58:00,83.3,71.6,29.98,SSE,158,5.6,10.1,68,0.00,,,0.00,WUHU216HW,2013-06-22 13:58:00,
2013-06-22 08:59:00,83.3,71.6,29.98,South,180,6.7,10.1,68,0.00,,,0.00,WUHU216HW,2013-06-22 13:59:00,
2013-06-22 09:00:00,83.5,71.4,29.98,SSW,203,4.5,10.5,67,0.00,,,0.00,WUHU216HW,2013-06-22 14:00:00,
2013-06-22 09:02:00,83.3,71.2,29.98,South,180,3.6,10.5,67,0.00,,,0.00,WUHU216HW,2013-06-22 14:02:00,
2013-06-22 09:03:00,83.3,71.2,29.98,ESE,113,6.0,10.5,67,0.00,,,0.00,WUHU216HW,2013-06-22 14:03:00,
2013-06-22 09:04:00,83.2,71.5,29.98,South,180,5.8,10.5,68,0.00,,,0.00,WUHU216HW,2013-06-22 14:04:00,
2013-06-22 09:06:00,83.2,71.5,29.98,SSE,158,5.1,10.5,68,0.00,,,0.00,WUHU216HW,2013-06-22 14:06:00,
2013-06-22 09:07:00,83.2,71.5,29.98,South,180,4.9,10.5,68,0.00,,,0.00,WUHU216HW,2013-06-22 14:07:00,
2013-06-22 09:09:00,83.0,71.3,29.98,South,180,5.4,10.5,68,0.00,,,0.00,WUHU216HW,2013-06-22 14:09:00,
2013-06-22 09:10:00,82.8,71.6,29.98,SSW,203,3.4,9.8,69,0.00,,,0.00,WUHU216HW,2013-06-22 14:10:00,
2013-06-22 09:11:00,82.8,71.6,29.98,SW,225,2.7,9.8,69,0.00,,,0.00,WUHU216HW,2013-06-22 14:11:00,
2013-06-22 09:12:00,82.8,71.6,29.98,South,180,5.4,7.6,69,0.00,,,0.00,WUHU216HW,2013-06-22 14:12:00,
2013-06-22 09:13:00,82.8,71.6,29.98,South,180,5.4,7.6,69,0.00,,,0.00,WUHU216HW,2013-06-22 14:13:00,
2013-06-22 09:14:00,83.0,71.7,29.98,SE,135,3.4,8.5,69,0.00,,,0.00,WUHU216HW,2013-06-22 14:14:00,
2013-06-22 09:15:00,83.0,71.7,29.98,SSE,158,6.0,8.5,69,0.00,,,0.00,WUHU216HW,2013-06-22 14:15:00,
2013-06-22 09:16:00,83.0,71.7,29.98,South,180,6.7,8.5,69,0.00,,,0.00,WUHU216HW,2013-06-22 14:16:00,
2013-06-22 09:17:00,83.0,71.7,29.98,SSW,203,8.7,8.7,69,0.00,,,0.00,WUHU216HW,2013-06-22 14:17:00,
2013-06-22 09:18:00,83.0,71.7,29.98,SE,135,7.4,8.7,69,0.00,,,0.00,WUHU216HW,2013-06-22 14:18:00,
2013-06-22 09:19:00,83.0,71.7,29.98,SSE,158,7.4,8.7,69,0.00,,,0.00,WUHU216HW,2013-06-22 14:19:00,
2013-06-22 09:20:00,83.2,71.9,29.98,SSE,158,6.7,8.7,69,0.00,,,0.00,WUHU216HW,2013-06-22 14:20:00,
2013-06-22 09:21:00,83.2,71.9,29.98,South,180,3.6,8.7,69,0.00,,,0.00,WUHU216HW,2013-06-22 14:21:00,
2013-06-22 09:22:00,83.3,72.5,29.98,SSE,158,1.8,8.7,70,0.00,,,0.00,WUHU216HW,2013-06-22 14:22:00,
2013-06-22 09:23:00,83.5,72.3,29.98,SE,135,5.4,8.7,69,0.00,,,0.00,WUHU216HW,2013-06-22 14:23:00,
2013-06-22 09:24:00,83.7,73.3,29.97,SSE,158,4.0,8.7,71,0.00,,,0.00,WUHU216HW,2013-06-22 14:24:00,
2013-06-22 09:25:00,83.7,72.5,29.97,SE,135,3.1,8.7,69,0.00,,,0.00,WUHU216HW,2013-06-22 14:25:00,
2013-06-22 09:26:00,83.9,71.7,29.97,SSE,158,9.8,9.8,67,0.00,,,0.00,WUHU216HW,2013-06-22 14:26:00,
2013-06-22 09:28:00,83.9,72.2,29.97,SE,135,1.8,9.8,68,0.00,,,0.00,WUHU216HW,2013-06-22 14:28:00,
2013-06-22 09:30:00,83.7,72.0,29.97,SW,225,4.7,9.8,68,0.00,,,0.00,WUHU216HW,2013-06-22 14:30:00,
2013-06-22 09:32:00,83.9,72.2,29.97,SE,135,6.9,9.8,68,0.00,,,0.00,WUHU216HW,2013-06-22 14:32:00,
2013-06-22 09:33:00,83.9,71.7,29.97,South,180,7.4,9.8,67,0.00,,,0.00,WUHU216HW,2013-06-22 14:33:00,
2013-06-22 09:34:00,83.9,72.2,29.97,SSE,158,4.0,9.8,68,0.00,,,0.00,WUHU216HW,2013-06-22 14:34:00,
2013-06-22 09:35:00,84.1,72.4,29.97,ESE,113,4.7,9.8,68,0.00,,,0.00,WUHU216HW,2013-06-22 14:35:00,
2013-06-22 09:36:00,84.1,72.4,29.97,SSE,158,4.7,9.8,68,0.00,,,0.00,WUHU216HW,2013-06-22 14:36:00,
2013-06-22 09:37:00,84.1,72.8,29.97,SSE,158,4.7,7.4,69,0.00,,,0.00,WUHU216HW,2013-06-22 14:37:00,
2013-06-22 09:38:00,84.2,73.0,29.97,SE,135,6.9,7.4,69,0.00,,,0.00,WUHU216HW,2013-06-22 14:38:00,
2013-06-22 09:39:00,84.2,72.5,29.97,South,180,6.3,8.5,68,0.00,,,0.00,WUHU216HW,2013-06-22 14:39:00,
2013-06-22 09:40:00,84.4,72.7,29.97,South,180,5.1,9.2,68,0.00,,,0.00,WUHU216HW,2013-06-22 14:40:00,
2013-06-22 09:41:00,84.4,72.3,29.97,SSE,158,6.3,9.2,67,0.00,,,0.00,WUHU216HW,2013-06-22 14:41:00,
2013-06-22 09:42:00,84.6,72.5,29.97,SE,135,4.0,9.2,67,0.00,,,0.00,WUHU216HW,2013-06-22 14:42:00,
2013-06-22 09:43:00,84.6,72.9,29.97,SE,135,7.6,9.2,68,0.00,,,0.00,WUHU216HW,2013-06-22 14:43:00,
2013-06-22 09:44:00,84.8,73.1,29.97,SSE,158,3.6,9.2,68,0.00,,,0.00,WUHU216HW,2013-06-22 14:44:00,
2013-06-22 09:45:00,84.8,72.6,29.97,ESE,113,5.4,9.4,67,0.00,,,0.00,WUHU216HW,2013-06-22 14:45:00,
2013-06-22 09:46:00,84.8,72.6,29.97,South,180,6.9,9.4,67,0.00,,,0.00,WUHU216HW,2013-06-22 14:46:00,
2013-06-22 09:47:00,84.8,72.6,29.97,South,180,5.4,9.4,67,0.00,,,0.00,WUHU216HW,2013-06-22 14:47:00,
2013-06-22 09:48:00,85.0,72.8,29.97,SSW,203,3.6,9.4,67,0.00,,,0.00,WUHU216HW,2013-06-22 14:48:00,
2013-06-22 09:49:00,85.0,72.8,29.97,South,180,8.3,9.4,67,0.00,,,0.00,WUHU216HW,2013-06-22 14:49:00,
2013-06-22 09:50:00,85.0,72.8,29.97,SE,135,7.6,9.4,67,0.00,,,0.00,WUHU216HW,2013-06-22 14:50:00,
2013-06-22 09:51:00,85.1,73.0,29.97,ESE,113,5.8,9.4,67,0.00,,,0.00,WUHU216HW,2013-06-22 14:51:00,
2013-06-22 09:52:00,85.1,72.6,29.97,SSE,158,7.4,9.4,66,0.00,,,0.00,WUHU216HW,2013-06-22 14:52:00,
2013-06-22 09:53:00,85.1,73.0,29.97,SSE,158,6.3,10.3,67,0.00,,,0.00,WUHU216HW,2013-06-22 14:53:00,
2013-06-22 09:54:00,85.1,73.0,29.97,SSE,158,8.5,10.3,67,0.00,,,0.00,WUHU216HW,2013-06-22 14:54:00,
2013-06-22 09:55:00,85.1,73.0,29.97,SSE,158,6.7,10.3,67,0.00,,,0.00,WUHU216HW,2013-06-22 14:55:00,
2013-06-22 09:56:00,85.0,72.4,29.97,SW,225,5.4,10.3,66,0.00,,,0.00,WUHU216HW,2013-06-22 14:56:00,
2013-06-22 09:58:00,85.1,72.6,29.97,South,180,5.8,10.3,66,0.00,,,0.00,WUHU216HW,2013-06-22 14:58:00,
2013-06-22 09:59:00,85.1,72.6,29.97,South,180,10.3,10.3,66,0.00,,,0.00,WUHU216HW,2013-06-22 14:59:00,
2013-06-22 10:00:00,85.0,72.4,29.97,SSE,158,12.3,12.3,66,0.00,,,0.00,WUHU216HW,2013-06-22 15:00:00,
2013-06-22 10:01:00,84.8,72.2,29.97,South,180,8.3,12.3,66,0.00,,,0.00,WUHU216HW,2013-06-22 15:01:00,
2013-06-22 10:03:00,84.8,72.2,29.97,SSW,203,6.9,12.3,66,0.00,,,0.00,WUHU216HW,2013-06-22 15:03:00,
2013-06-22 10:04:00,84.8,72.2,29.97,South,180,5.6,12.3,66,0.00,,,0.00,WUHU216HW,2013-06-22 15:04:00,
2013-06-22 10:06:00,84.8,72.2,29.97,SE,135,7.8,12.3,66,0.00,,,0.00,WUHU216HW,2013-06-22 15:06:00,
2013-06-22 10:07:00,84.8,72.2,29.97,South,180,10.7,12.3,66,0.00,,,0.00,WUHU216HW,2013-06-22 15:07:00,
2013-06-22 10:08:00,84.8,72.2,29.97,ESE,113,6.3,12.3,66,0.00,,,0.00,WUHU216HW,2013-06-22 15:08:00,
2013-06-22 10:09:00,85.0,72.4,29.97,SE,135,5.4,12.3,66,0.00,,,0.00,WUHU216HW,2013-06-22 15:09:00,
2013-06-22 10:10:00,85.0,71.9,29.97,SSE,158,7.2,12.3,65,0.00,,,0.00,WUHU216HW,2013-06-22 15:10:00,
2013-06-22 10:12:00,85.0,72.4,29.97,SE,135,7.8,11.0,66,0.00,,,0.00,WUHU216HW,2013-06-22 15:12:00,
2013-06-22 10:13:00,85.1,72.6,29.97,SE,135,4.7,10.7,66,0.00,,,0.00,WUHU216HW,2013-06-22 15:13:00,
2013-06-22 10:14:00,85.1,72.6,29.97,SW,225,6.3,10.7,66,0.00,,,0.00,WUHU216HW,2013-06-22 15:14:00,
2013-06-22 10:15:00,85.3,72.7,29.97,SW,225,6.0,10.7,66,0.00,,,0.00,WUHU216HW,2013-06-22 15:15:00,
2013-06-22 10:17:00,85.5,72.4,29.97,SSW,203,8.7,10.5,65,0.00,,,0.00,WUHU216HW,2013-06-22 15:17:00,
2013-06-22 10:18:00,85.5,72.4,29.97,SSE,158,4.9,10.5,65,0.00,,,0.00,WUHU216HW,2013-06-22 15:18:00,
2013-06-22 10:19:00,85.5,72.8,29.97,SSW,203,6.9,10.5,66,0.00,,,0.00,WUHU216HW,2013-06-22 15:19:00,
2013-06-22 10:20:00,85.7,73.0,29.97,South,180,7.4,10.5,66,0.00,,,0.00,WUHU216HW,2013-06-22 15:20:00,
2013-06-22 10:23:00,85.7,72.5,29.97,South,180,7.4,10.5,65,0.00,,,0.00,WUHU216HW,2013-06-22 15:23:00,
2013-06-22 10:24:00,85.7,72.5,29.97,South,180,8.9,13.6,65,0.00,,,0.00,WUHU216HW,2013-06-22 15:24:00,
2013-06-22 10:25:00,85.7,72.5,29.97,SSE,158,6.3,13.6,65,0.00,,,0.00,WUHU216HW,2013-06-22 15:25:00,
2013-06-22 10:28:00,86.0,72.9,29.97,SSE,158,3.8,13.6,65,0.00,,,0.00,WUHU216HW,2013-06-22 15:28:00,
2013-06-22 10:29:00,86.0,72.9,29.98,SE,135,2.9,13.6,65,0.00,,,0.00,WUHU216HW,2013-06-22 15:29:00,
2013-06-22 10:30:00,86.2,73.1,29.98,SE,135,5.4,13.6,65,0.00,,,0.00,WUHU216HW,2013-06-22 15:30:00,
2013-06-22 10:33:00,86.6,73.0,29.98,SSW,203,8.3,13.6,64,0.00,,,0.00,WUHU216HW,2013-06-22 15:33:00,
2013-06-22 10:34:00,86.8,73.1,29.98,SE,135,8.5,10.3,64,0.00,,,0.00,WUHU216HW,2013-06-22 15:34:00,
2013-06-22 10:35:00,86.8,73.1,29.98,SSE,158,8.5,9.6,64,0.00,,,0.00,WUHU216HW,2013-06-22 15:35:00,
2013-06-22 10:38:00,86.8,72.2,29.98,SW,225,4.5,10.7,62,0.00,,,0.00,WUHU216HW,2013-06-22 15:38:00,
2013-06-22 10:39:00,86.8,72.6,29.98,SSE,158,6.9,10.7,63,0.00,,,0.00,WUHU216HW,2013-06-22 15:39:00,
2013-06-22 10:40:00,86.8,72.6,29.98,South,180,8.5,10.7,63,0.00,,,0.00,WUHU216HW,2013-06-22 15:40:00,
2013-06-22 10:43:00,86.9,73.3,29.98,West,270,4.9,10.7,64,0.00,,,0.00,WUHU216HW,2013-06-22 15:43:00,
2013-06-22 10:44:00,86.9,73.3,29.98,South,180,10.5,10.7,64,0.00,,,0.00,WUHU216HW,2013-06-22 15:44:00,
2013-06-22 10:45:00,87.1,73.0,29.98,South,180,9.4,11.4,63,0.00,,,0.00,WUHU216HW,2013-06-22 15:45:00,
2013-06-22 10:46:00,87.1,72.5,29.98,South,180,9.4,11.4,62,0.00,,,0.00,WUHU216HW,2013-06-22 15:46:00,
2013-06-22 10:48:00,86.9,72.4,29.98,South,180,8.5,11.4,62,0.00,,,0.00,WUHU216HW,2013-06-22 15:48:00,
2013-06-22 10:49:00,86.9,72.8,29.98,South,180,8.5,11.4,63,0.00,,,0.00,WUHU216HW,2013-06-22 15:49:00,
2013-06-22 10:50:00,86.9,72.8,29.98,South,180,8.1,11.4,63,0.00,,,0.00,WUHU216HW,2013-06-22 15:50:00,
2013-06-22 10:52:00,87.1,72.5,29.98,SE,135,1.1,11.4,62,0.00,,,0.00,WUHU216HW,2013-06-22 15:52:00,
2013-06-22 10:53:00,87.3,73.2,29.98,SSE,158,4.3,11.4,63,0.00,,,0.00,WUHU216HW,2013-06-22 15:53:00,
2013-06-22 10:54:00,87.5,73.4,29.98,SSE,158,5.6,11.4,63,0.00,,,0.00,WUHU216HW,2013-06-22 15:54:00,
2013-06-22 10:55:00,87.5,73.4,29.98,South,180,6.3,11.4,63,0.00,,,0.00,WUHU216HW,2013-06-22 15:55:00,
2013-06-22 10:56:00,87.7,73.1,29.98,SSW,203,8.5,9.4,62,0.00,,,0.00,WUHU216HW,2013-06-22 15:56:00,
2013-06-22 10:57:00,87.7,73.1,29.98,SSW,203,8.5,8.9,62,0.00,,,0.00,WUHU216HW,2013-06-22 15:57:00,
2013-06-22 10:59:00,87.8,73.3,29.98,SE,135,6.3,10.3,62,0.00,,,0.00,WUHU216HW,2013-06-22 15:59:00,
2013-06-22 11:01:00,87.7,72.6,29.98,SSW,203,5.6,11.4,61,0.00,,,0.00,WUHU216HW,2013-06-22 16:01:00,
2013-06-22 11:02:00,87.7,72.6,29.98,SSE,158,7.8,11.4,61,0.00,,,0.00,WUHU216HW,2013-06-22 16:02:00,
2013-06-22 11:04:00,87.5,72.0,29.98,ESE,113,8.3,14.1,60,0.00,,,0.00,WUHU216HW,2013-06-22 16:04:00,
2013-06-22 11:06:00,87.5,72.5,29.98,SSE,158,6.3,14.1,61,0.00,,,0.00,WUHU216HW,2013-06-22 16:06:00,
2013-06-22 11:07:00,87.7,73.1,29.98,South,180,4.0,14.1,62,0.00,,,0.00,WUHU216HW,2013-06-22 16:07:00,
2013-06-22 11:09:00,87.8,72.8,29.98,SSW,203,5.6,14.1,61,0.00,,,0.00,WUHU216HW,2013-06-22 16:09:00,
2013-06-22 11:11:00,88.0,72.6,29.98,SSE,158,6.3,14.1,60,0.00,,,0.00,WUHU216HW,2013-06-22 16:11:00,
2013-06-22 11:12:00,88.2,73.2,29.98,SSE,158,6.9,14.1,61,0.00,,,0.00,WUHU216HW,2013-06-22 16:12:00,
2013-06-22 11:14:00,88.2,73.2,29.98,South,180,4.5,11.2,61,0.00,,,0.00,WUHU216HW,2013-06-22 16:14:00,
2013-06-22 11:16:00,88.2,73.2,29.98,SSW,203,5.4,11.2,61,0.00,,,0.00,WUHU216HW,2013-06-22 16:16:00,
2013-06-22 11:17:00,88.6,73.4,29.98,South,180,5.1,11.2,61,0.00,,,0.00,WUHU216HW,2013-06-22 16:17:00,
2013-06-22 11:19:00,88.9,72.8,29.98,SW,225,4.3,11.2,59,0.00,,,0.00,WUHU216HW,2013-06-22 16:19:00,
2013-06-22 11:21:00,88.9,72.8,29.98,SSE,158,6.3,9.4,59,0.00,,,0.00,WUHU216HW,2013-06-22 16:21:00,
2013-06-22 11:23:00,88.9,72.8,29.99,ESE,113,4.3,9.8,59,0.00,,,0.00,WUHU216HW,2013-06-22 16:23:00,
2013-06-22 11:24:00,88.9,72.8,29.99,South,180,6.0,9.8,59,0.00,,,0.00,WUHU216HW,2013-06-22 16:24:00,
2013-06-22 11:25:00,88.9,72.8,29.99,SE,135,2.9,9.8,59,0.00,,,0.00,WUHU216HW,2013-06-22 16:25:00,
2013-06-22 11:26:00,88.9,72.8,29.99,SSE,158,4.3,9.8,59,0.00,,,0.00,WUHU216HW,2013-06-22 16:26:00,
2013-06-22 11:28:00,89.3,73.6,29.99,South,180,4.7,9.8,60,0.00,,,0.00,WUHU216HW,2013-06-22 16:28:00,
2013-06-22 11:29:00,89.5,73.8,29.99,SSE,158,4.7,9.8,60,0.00,,,0.00,WUHU216HW,2013-06-22 16:29:00,
2013-06-22 11:30:00,89.5,73.8,29.99,SSE,158,7.6,9.8,60,0.00,,,0.00,WUHU216HW,2013-06-22 16:30:00,
2013-06-22 11:31:00,89.5,73.3,29.99,South,180,9.8,13.6,59,0.00,,,0.00,WUHU216HW,2013-06-22 16:31:00,
2013-06-22 11:32:00,89.5,73.3,29.99,SSW,203,8.3,13.6,59,0.00,,,0.00,WUHU216HW,2013-06-22 16:32:00,
2013-06-22 11:33:00,89.5,73.3,29.99,South,180,6.7,13.6,59,0.00,,,0.00,WUHU216HW,2013-06-22 16:33:00,
2013-06-22 11:34:00,89.5,73.8,29.99,SSW,203,6.5,13.6,60,0.00,,,0.00,WUHU216HW,2013-06-22 16:34:00,
2013-06-22 11:35:00,89.5,73.8,29.99,South,180,4.3,13.6,60,0.00,,,0.00,WUHU216HW,2013-06-22 16:35:00,
2013-06-22 11:36:00,89.6,73.4,29.99,South,180,6.9,13.6,59,0.00,,,0.00,WUHU216HW,2013-06-22 16:36:00,
2013-06-22 11:37:00,89.6,73.4,29.99,South,180,4.0,13.6,59,0.00,,,0.00,WUHU216HW,2013-06-22 16:37:00,
2013-06-22 11:38:00,89.6,73.4,29.99,South,180,6.3,13.6,59,0.00,,,0.00,WUHU216HW,2013-06-22 16:38:00,
2013-06-22 11:40:00,89.8,73.6,29.99,SSW,203,9.2,13.6,59,0.00,,,0.00,WUHU216HW,2013-06-22 16:40:00,
2013-06-22 11:41:00,89.8,73.1,29.99,SE,135,10.3,11.0,58,0.00,,,0.00,WUHU216HW,2013-06-22 16:41:00,
2013-06-22 11:42:00,89.6,72.4,29.99,South,180,7.4,12.8,57,0.00,,,0.00,WUHU216HW,2013-06-22 16:42:00,
2013-06-22 11:43:00,89.6,72.9,29.99,SSW,203,5.4,12.8,58,0.00,,,0.00,WUHU216HW,2013-06-22 16:43:00,
2013-06-22 11:45:00,89.6,73.4,29.99,WSW,248,2.9,12.8,59,0.00,,,0.00,WUHU216HW,2013-06-22 16:45:00,
2013-06-22 11:47:00,89.6,72.9,29.99,SSW,203,5.4,12.8,58,0.00,,,0.00,WUHU216HW,2013-06-22 16:47:00,
2013-06-22 11:48:00,89.8,73.6,29.99,South,180,6.3,12.8,59,0.00,,,0.00,WUHU216HW,2013-06-22 16:48:00,
2013-06-22 11:50:00,89.8,73.6,29.98,WSW,248,7.2,12.8,59,0.00,,,0.00,WUHU216HW,2013-06-22 16:50:00,
2013-06-22 11:52:00,89.8,73.6,29.99,SSW,203,6.5,9.2,59,0.00,,,0.00,WUHU216HW,2013-06-22 16:52:00,
2013-06-22 11:53:00,89.8,73.6,29.99,West,270,4.0,9.2,59,0.00,,,0.00,WUHU216HW,2013-06-22 16:53:00,
2013-06-22 11:55:00,89.6,72.9,29.99,SSE,158,7.6,9.6,58,0.00,,,0.00,WUHU216HW,2013-06-22 16:55:00,
2013-06-22 11:58:00,89.8,73.1,29.99,SE,135,7.4,9.6,58,0.00,,,0.00,WUHU216HW,2013-06-22 16:58:00,
2013-06-22 11:59:00,89.8,73.1,29.99,SSE,158,6.9,9.6,58,0.00,,,0.00,WUHU216HW,2013-06-22 16:59:00,
2013-06-22 12:00:00,90.0,73.3,29.99,SW,225,6.7,9.6,58,0.00,,,0.00,WUHU216HW,2013-06-22 17:00:00,
2013-06-22 12:01:00,90.0,73.3,29.99,SSE,158,9.2,9.6,58,0.00,,,0.00,WUHU216HW,2013-06-22 17:01:00,
2013-06-22 12:03:00,89.8,72.6,29.99,SE,135,5.1,9.6,57,0.00,,,0.00,WUHU216HW,2013-06-22 17:03:00,
2013-06-22 12:04:00,89.8,72.6,29.99,SE,135,4.0,9.6,57,0.00,,,0.00,WUHU216HW,2013-06-22 17:04:00,
2013-06-22 12:06:00,90.0,72.7,29.99,South,180,7.6,12.5,57,0.00,,,0.00,WUHU216HW,2013-06-22 17:06:00,
2013-06-22 12:08:00,90.0,72.2,29.99,South,180,7.6,12.5,56,0.00,,,0.00,WUHU216HW,2013-06-22 17:08:00,
2013-06-22 12:09:00,90.0,72.7,29.99,SSW,203,6.5,12.5,57,0.00,,,0.00,WUHU216HW,2013-06-22 17:09:00,
2013-06-22 12:11:00,90.2,72.8,29.99,SE,135,5.8,12.5,57,0.00,,,0.00,WUHU216HW,2013-06-22 17:11:00,
2013-06-22 12:12:00,90.2,72.8,29.99,SW,225,6.5,12.5,57,0.00,,,0.00,WUHU216HW,2013-06-22 17:12:00,
2013-06-22 12:13:00,90.2,72.8,29.99,SSE,158,5.1,12.5,57,0.00,,,0.00,WUHU216HW,2013-06-22 17:13:00,
2013-06-22 12:14:00,90.4,72.5,29.99,SSE,158,5.4,12.5,56,0.00,,,0.00,WUHU216HW,2013-06-22 17:14:00,
2013-06-22 12:16:00,90.4,72.5,29.99,SSE,158,4.0,9.6,56,0.00,,,0.00,WUHU216HW,2013-06-22 17:16:00,
2013-06-22 12:17:00,90.4,72.5,29.99,SE,135,4.7,9.6,56,0.00,,,0.00,WUHU216HW,2013-06-22 17:17:00,
2013-06-22 12:18:00,90.4,72.5,29.99,SSW,203,2.5,9.6,56,0.00,,,0.00,WUHU216HW,2013-06-22 17:18:00,
2013-06-22 12:19:00,90.4,72.5,29.99,SSE,158,1.8,9.6,56,0.00,,,0.00,WUHU216HW,2013-06-22 17:19:00,
2013-06-22 12:22:00,90.5,72.6,29.99,SE,135,4.5,9.6,56,0.00,,,0.00,WUHU216HW,2013-06-22 17:22:00,
2013-06-22 12:24:00,90.7,72.3,30.00,South,180,11.4,11.4,55,0.00,,,0.00,WUHU216HW,2013-06-22 17:24:00,
2013-06-22 12:25:00,90.5,72.1,29.99,South,180,7.2,11.4,55,0.00,,,0.00,WUHU216HW,2013-06-22 17:25:00,
2013-06-22 12:27:00,90.5,72.6,29.99,SSE,158,8.1,11.4,56,0.00,,,0.00,WUHU216HW,2013-06-22 17:27:00,
2013-06-22 12:29:00,90.9,73.5,30.00,South,180,7.8,11.4,57,0.00,,,0.00,WUHU216HW,2013-06-22 17:29:00,
2013-06-22 12:30:00,90.9,72.5,30.00,SSW,203,10.5,11.4,55,0.00,,,0.00,WUHU216HW,2013-06-22 17:30:00,
2013-06-22 12:32:00,90.9,72.5,30.00,South,180,7.2,11.6,55,0.00,,,0.00,WUHU216HW,2013-06-22 17:32:00,
2013-06-22 12:33:00,90.9,72.5,30.00,SSW,203,4.3,11.6,55,0.00,,,0.00,WUHU216HW,2013-06-22 17:33:00,
2013-06-22 12:34:00,90.9,72.5,30.00,South,180,5.4,11.6,55,0.00,,,0.00,WUHU216HW,2013-06-22 17:34:00,
2013-06-22 12:35:00,90.9,72.5,29.99,SSW,203,7.4,11.6,55,0.00,,,0.00,WUHU216HW,2013-06-22 17:35:00,
2013-06-22 12:37:00,90.9,72.5,29.99,SSW,203,9.4,11.6,55,0.00,,,0.00,WUHU216HW,2013-06-22 17:37:00,
2013-06-22 12:38:00,90.9,72.5,29.99,ESE,113,4.0,11.6,55,0.00,,,0.00,WUHU216HW,2013-06-22 17:38:00,
2013-06-22 12:39:00,90.9,72.5,30.00,WSW,248,3.4,11.6,55,0.00,,,0.00,WUHU216HW,2013-06-22 17:39:00,
2013-06-22 12:40:00,91.1,72.5,30.00,WSW,248,6.9,9.6,55,0.00,,,0.00,WUHU216HW,2013-06-22 17:40:00,
2013-06-22 12:42:00,91.1,72.5,30.00,WSW,248,1.1,9.6,55,0.00,,,0.00,WUHU216HW,2013-06-22 17:42:00,
2013-06-22 12:43:00,91.1,72.5,29.99,SSE,158,3.6,9.6,55,0.00,,,0.00,WUHU216HW,2013-06-22 17:43:00,
2013-06-22 12:45:00,91.4,72.9,29.99,SE,135,7.4,9.6,55,0.00,,,0.00,WUHU216HW,2013-06-22 17:45:00,
2013-06-22 12:47:00,91.6,73.1,29.99,SE,135,2.5,9.6,55,0.00,,,0.00,WUHU216HW,2013-06-22 17:47:00,
2013-06-22 12:48:00,91.8,73.3,29.99,SSW,203,5.1,7.4,55,0.00,,,0.00,WUHU216HW,2013-06-22 17:48:00,
2013-06-22 12:50:00,91.8,73.3,29.99,SE,135,6.9,9.2,55,0.00,,,0.00,WUHU216HW,2013-06-22 17:50:00,
2013-06-22 12:51:00,91.8,73.3,29.99,SSE,158,4.0,9.2,55,0.00,,,0.00,WUHU216HW,2013-06-22 17:51:00,
2013-06-22 12:52:00,92.0,73.5,29.99,South,180,3.8,9.2,55,0.00,,,0.00,WUHU216HW,2013-06-22 17:52:00,
2013-06-22 12:53:00,92.0,73.5,29.99,SE,135,7.6,9.2,55,0.00,,,0.00,WUHU216HW,2013-06-22 17:53:00,
2013-06-22 12:59:00,92.0,72.4,29.99,South,180,6.7,9.2,53,0.00,,,0.00,WUHU216HW,2013-06-22 17:59:00,
2013-06-22 13:04:00,91.8,73.3,29.98,SSE,158,2.5,11.9,55,0.00,,,0.00,WUHU216HW,2013-06-22 18:04:00,
2013-06-22 13:09:00,91.8,72.7,29.98,SW,225,4.9,9.6,54,0.00,,,0.00,WUHU216HW,2013-06-22 18:09:00,
2013-06-22 13:10:00,91.8,73.3,29.98,SSW,203,8.7,11.0,55,0.00,,,0.00,WUHU216HW,2013-06-22 18:10:00,
2013-06-22 13:14:00,91.6,72.6,29.98,South,180,6.9,11.4,54,0.00,,,0.00,WUHU216HW,2013-06-22 18:14:00,
2013-06-22 13:15:00,91.6,73.1,29.98,SE,135,6.3,11.4,55,0.00,,,0.00,WUHU216HW,2013-06-22 18:15:00,
2013-06-22 13:19:00,91.6,72.6,29.98,SSW,203,5.4,12.8,54,0.00,,,0.00,WUHU216HW,2013-06-22 18:19:00,
2013-06-22 13:20:00,91.6,73.1,29.98,SSE,158,5.4,12.8,55,0.00,,,0.00,WUHU216HW,2013-06-22 18:20:00,
2013-06-22 13:24:00,92.0,72.9,29.98,SSE,158,3.8,12.8,54,0.00,,,0.00,WUHU216HW,2013-06-22 18:24:00,
2013-06-22 13:25:00,92.0,72.9,29.98,South,180,2.9,12.8,54,0.00,,,0.00,WUHU216HW,2013-06-22 18:25:00,
2013-06-22 13:29:00,92.5,73.4,29.98,SE,135,4.7,11.0,54,0.00,,,0.00,WUHU216HW,2013-06-22 18:29:00,
2013-06-22 13:30:00,92.5,73.4,29.98,SE,135,4.7,11.0,54,0.00,,,0.00,WUHU216HW,2013-06-22 18:30:00,
2013-06-22 13:34:00,92.5,73.4,29.98,SSE,158,8.3,11.0,54,0.00,,,0.00,WUHU216HW,2013-06-22 18:34:00,
2013-06-22 13:35:00,92.5,72.8,29.98,SE,135,6.3,11.0,53,0.00,,,0.00,WUHU216HW,2013-06-22 18:35:00,
2013-06-22 13:40:00,92.5,72.8,29.97,SSW,203,4.7,10.1,53,0.00,,,0.00,WUHU216HW,2013-06-22 18:40:00,
2013-06-22 13:41:00,92.3,72.1,29.97,ESE,113,6.7,10.1,52,0.00,,,0.00,WUHU216HW,2013-06-22 18:41:00,
2013-06-22 13:45:00,92.0,72.4,29.97,SSW,203,10.7,14.1,53,0.00,,,0.00,WUHU216HW,2013-06-22 18:45:00,
2013-06-22 13:46:00,92.0,72.4,29.97,ESE,113,8.1,14.1,53,0.00,,,0.00,WUHU216HW,2013-06-22 18:46:00,
2013-06-22 13:50:00,92.3,73.2,29.96,South,180,0.4,14.1,54,0.00,,,0.00,WUHU216HW,2013-06-22 18:50:00,
2013-06-22 13:51:00,92.5,73.4,29.96,SSW,203,4.0,14.1,54,0.00,,,0.00,WUHU216HW,2013-06-22 18:51:00,
2013-06-22 13:55:00,93.1,73.9,29.97,SSE,158,4.5,8.3,54,0.00,,,0.00,WUHU216HW,2013-06-22 18:55:00,
2013-06-22 13:56:00,93.2,74.1,29.97,ESE,113,9.2,9.2,54,0.00,,,0.00,WUHU216HW,2013-06-22 18:56:00,
2013-06-22 13:57:00,93.2,73.5,29.97,South,180,4.7,9.2,53,0.00,,,0.00,WUHU216HW,2013-06-22 18:57:00,
2013-06-22 14:01:00,93.1,72.8,29.97,South,180,6.0,10.5,52,0.00,,,0.00,WUHU216HW,2013-06-22 19:01:00,
2013-06-22 14:02:00,92.9,72.6,29.97,SW,225,5.4,11.0,52,0.00,,,0.00,WUHU216HW,2013-06-22 19:02:00,
2013-06-22 14:06:00,92.5,71.7,29.96,SE,135,7.6,12.1,51,0.00,,,0.00,WUHU216HW,2013-06-22 19:06:00,
2013-06-22 14:07:00,92.5,71.7,29.96,SSE,158,5.8,12.1,51,0.00,,,0.00,WUHU216HW,2013-06-22 19:07:00,
2013-06-22 14:11:00,92.5,71.7,29.96,SSW,203,6.9,12.1,51,0.00,,,0.00,WUHU216HW,2013-06-22 19:11:00,
2013-06-22 14:12:00,92.7,71.9,29.96,SSW,203,6.3,12.1,51,0.00,,,0.00,WUHU216HW,2013-06-22 19:12:00,
2013-06-22 14:16:00,93.1,72.2,29.96,SSW,203,7.4,12.1,51,0.00,,,0.00,WUHU216HW,2013-06-22 19:16:00,
2013-06-22 14:17:00,93.1,72.8,29.96,South,180,5.1,9.8,52,0.00,,,0.00,WUHU216HW,2013-06-22 19:17:00,
2013-06-22 14:21:00,92.5,72.8,29.95,ESE,113,1.8,7.6,53,0.00,,,0.00,WUHU216HW,2013-06-22 19:21:00,
2013-06-22 14:23:00,92.5,72.8,29.95,South,180,4.9,7.6,53,0.00,,,0.00,WUHU216HW,2013-06-22 19:23:00,
2013-06-22 14:26:00,92.5,72.8,29.95,South,180,5.4,8.3,53,0.00,,,0.00,WUHU216HW,2013-06-22 19:26:00,
2013-06-22 14:27:00,92.5,72.8,29.95,SSW,203,4.3,8.3,53,0.00,,,0.00,WUHU216HW,2013-06-22 19:27:00,
2013-06-22 14:28:00,92.5,72.8,29.95,South,180,6.9,8.3,53,0.00,,,0.00,WUHU216HW,2013-06-22 19:28:00,
2013-06-22 14:31:00,92.9,73.2,29.95,South,180,7.8,8.3,53,0.00,,,0.00,WUHU216HW,2013-06-22 19:31:00,
2013-06-22 14:32:00,92.9,73.2,29.95,SE,135,7.4,9.8,53,0.00,,,0.00,WUHU216HW,2013-06-22 19:32:00,
2013-06-22 14:33:00,92.9,72.6,29.95,SSW,203,6.3,10.1,52,0.00,,,0.00,WUHU216HW,2013-06-22 19:33:00,
2013-06-22 14:36:00,92.9,72.6,29.95,SSW,203,6.5,10.1,52,0.00,,,0.00,WUHU216HW,2013-06-22 19:36:00,
2013-06-22 14:37:00,93.1,72.8,29.95,South,180,7.4,10.1,52,0.00,,,0.00,WUHU216HW,2013-06-22 19:37:00,
2013-06-22 14:38:00,92.9,72.6,29.95,SSW,203,6.3,10.1,52,0.00,,,0.00,WUHU216HW,2013-06-22 19:38:00,
2013-06-22 14:41:00,93.1,72.8,29.95,SE,135,5.4,10.1,52,0.00,,,0.00,WUHU216HW,2013-06-22 19:41:00,
2013-06-22 14:42:00,93.1,72.8,29.95,SSE,158,9.4,10.1,52,0.00,,,0.00,WUHU216HW,2013-06-22 19:42:00,
2013-06-22 14:43:00,93.1,72.8,29.95,South,180,8.3,9.4,52,0.00,,,0.00,WUHU216HW,2013-06-22 19:43:00,
2013-06-22 14:46:00,92.9,72.1,29.94,SSW,203,6.0,11.2,51,0.00,,,0.00,WUHU216HW,2013-06-22 19:46:00,
2013-06-22 14:47:00,92.9,72.6,29.94,South,180,5.6,11.2,52,0.00,,,0.00,WUHU216HW,2013-06-22 19:47:00,
2013-06-22 14:48:00,92.9,72.6,29.94,South,180,6.0,11.2,52,0.00,,,0.00,WUHU216HW,2013-06-22 19:48:00,
2013-06-22 14:51:00,93.1,72.8,29.94,South,180,6.3,11.2,52,0.00,,,0.00,WUHU216HW,2013-06-22 19:51:00,
2013-06-22 14:52:00,93.1,72.8,29.94,SSE,158,4.7,11.2,52,0.00,,,0.00,WUHU216HW,2013-06-22 19:52:00,
2013-06-22 14:53:00,93.2,73.5,29.94,SE,135,3.8,11.2,53,0.00,,,0.00,WUHU216HW,2013-06-22 19:53:00,
2013-06-22 14:54:00,93.2,73.5,29.94,South,180,5.8,11.2,53,0.00,,,0.00,WUHU216HW,2013-06-22 19:54:00,
2013-06-22 14:56:00,93.4,73.1,29.94,SW,225,5.8,10.5,52,0.00,,,0.00,WUHU216HW,2013-06-22 19:56:00,
2013-06-22 14:57:00,93.6,73.8,29.94,SSW,203,2.2,10.5,53,0.00,,,0.00,WUHU216HW,2013-06-22 19:57:00,
2013-06-22 14:58:00,93.6,73.3,29.94,South,180,3.4,10.5,52,0.00,,,0.00,WUHU216HW,2013-06-22 19:58:00,
2013-06-22 14:59:00,93.6,73.3,29.94,SSW,203,6.3,10.5,52,0.00,,,0.00,WUHU216HW,2013-06-22 19:59:00,
2013-06-22 15:01:00,94.0,73.6,29.94,SSW,203,2.0,9.8,52,0.00,,,0.00,WUHU216HW,2013-06-22 20:01:00,
2013-06-22 15:03:00,94.1,73.8,29.94,SSE,158,2.5,9.8,52,0.00,,,0.00,WUHU216HW,2013-06-22 20:03:00,
2013-06-22 15:04:00,94.3,73.4,29.94,South,180,8.5,9.8,51,0.00,,,0.00,WUHU216HW,2013-06-22 20:04:00,
2013-06-22 15:07:00,94.1,73.3,29.94,South,180,5.8,9.2,51,0.00,,,0.00,WUHU216HW,2013-06-22 20:07:00,
2013-06-22 15:08:00,94.0,73.1,29.94,SSE,158,9.6,10.3,51,0.00,,,0.00,WUHU216HW,2013-06-22 20:08:00,
2013-06-22 15:09:00,93.8,72.9,29.94,SW,225,8.3,10.3,51,0.00,,,0.00,WUHU216HW,2013-06-22 20:09:00,
2013-06-22 15:12:00,93.2,72.9,29.94,WSW,248,4.9,10.3,52,0.00,,,0.00,WUHU216HW,2013-06-22 20:12:00,
2013-06-22 15:13:00,93.4,73.1,29.94,SSW,203,9.2,10.3,52,0.00,,,0.00,WUHU216HW,2013-06-22 20:13:00,
2013-06-22 15:14:00,93.4,73.1,29.94,SSW,203,11.2,11.2,52,0.00,,,0.00,WUHU216HW,2013-06-22 20:14:00,
2013-06-22 15:15:00,93.6,72.7,29.93,SSE,158,6.9,11.2,51,0.00,,,0.00,WUHU216HW,2013-06-22 20:15:00,
2013-06-22 15:17:00,93.4,71.4,29.93,South,180,9.4,11.2,49,0.00,,,0.00,WUHU216HW,2013-06-22 20:17:00,
2013-06-22 15:18:00,93.2,71.8,29.93,SSE,158,6.9,11.2,50,0.00,,,0.00,WUHU216HW,2013-06-22 20:18:00,
2013-06-22 15:19:00,93.2,71.8,29.93,SW,225,0.7,11.2,50,0.00,,,0.00,WUHU216HW,2013-06-22 20:19:00,
2013-06-22 15:20:00,93.2,71.8,29.93,SSE,158,8.7,11.2,50,0.00,,,0.00,WUHU216HW,2013-06-22 20:20:00,
2013-06-22 15:22:00,93.1,72.2,29.93,South,180,7.4,11.2,51,0.00,,,0.00,WUHU216HW,2013-06-22 20:22:00,
2013-06-22 15:23:00,93.1,72.8,29.93,South,180,3.1,11.2,52,0.00,,,0.00,WUHU216HW,2013-06-22 20:23:00,
2013-06-22 15:24:00,93.2,72.9,29.93,SW,225,4.9,11.0,52,0.00,,,0.00,WUHU216HW,2013-06-22 20:24:00,
2013-06-22 15:25:00,93.2,72.9,29.93,South,180,5.1,11.0,52,0.00,,,0.00,WUHU216HW,2013-06-22 20:25:00,
2013-06-22 15:26:00,93.2,71.8,29.93,North,0,4.0,11.4,50,0.00,,,0.00,WUHU216HW,2013-06-22 20:26:00,
2013-06-22 15:27:00,93.4,72.5,29.93,SW,225,6.5,11.4,51,0.00,,,0.00,WUHU216HW,2013-06-22 20:27:00,
2013-06-22 15:28:00,93.4,72.0,29.93,SSW,203,10.7,11.4,50,0.00,,,0.00,WUHU216HW,2013-06-22 20:28:00,
2013-06-22 15:29:00,93.4,72.0,29.93,SSE,158,10.1,11.4,50,0.00,,,0.00,WUHU216HW,2013-06-22 20:29:00,
2013-06-22 15:30:00,93.4,71.4,29.93,South,180,10.3,11.6,49,0.00,,,0.00,WUHU216HW,2013-06-22 20:30:00,
2013-06-22 15:31:00,93.4,72.0,29.93,ESE,113,6.3,11.6,50,0.00,,,0.00,WUHU216HW,2013-06-22 20:31:00,
2013-06-22 15:33:00,93.2,71.8,29.92,SSW,203,11.0,11.6,50,0.00,,,0.00,WUHU216HW,2013-06-22 20:33:00,
2013-06-22 15:34:00,92.9,71.5,29.92,South,180,6.7,11.6,50,0.00,,,0.00,WUHU216HW,2013-06-22 20:34:00,
2013-06-22 15:35:00,92.9,72.1,29.92,SSE,158,6.3,11.6,51,0.00,,,0.00,WUHU216HW,2013-06-22 20:35:00,
2013-06-22 15:36:00,92.7,71.9,29.92,South,180,4.3,11.6,51,0.00,,,0.00,WUHU216HW,2013-06-22 20:36:00,
2013-06-22 15:38:00,92.9,72.1,29.92,SE,135,7.6,11.6,51,0.00,,,0.00,WUHU216HW,2013-06-22 20:38:00,
2013-06-22 15:39:00,92.9,72.1,29.92,SSW,203,8.9,11.6,51,0.00,,,0.00,WUHU216HW,2013-06-22 20:39:00,
2013-06-22 15:40:00,92.9,71.5,29.92,SSW,203,9.6,15.7,50,0.00,,,0.00,WUHU216HW,2013-06-22 20:40:00,
2013-06-22 15:41:00,92.9,71.5,29.91,South,180,6.9,15.7,50,0.00,,,0.00,WUHU216HW,2013-06-22 20:41:00,
2013-06-22 15:43:00,93.1,71.6,29.91,SSE,158,7.6,15.7,50,0.00,,,0.00,WUHU216HW,2013-06-22 20:43:00,
2013-06-22 15:44:00,92.9,71.5,29.91,ESE,113,9.8,15.7,50,0.00,,,0.00,WUHU216HW,2013-06-22 20:44:00,
2013-06-22 15:45:00,92.9,71.5,29.91,South,180,11.4,15.7,50,0.00,,,0.00,WUHU216HW,2013-06-22 20:45:00,
2013-06-22 15:46:00,92.7,71.9,29.91,SW,225,7.2,15.7,51,0.00,,,0.00,WUHU216HW,2013-06-22 20:46:00,
2013-06-22 15:48:00,92.9,72.1,29.91,SE,135,6.3,15.7,51,0.00,,,0.00,WUHU216HW,2013-06-22 20:48:00,
2013-06-22 15:49:00,92.9,72.1,29.90,SSE,158,8.9,15.7,51,0.00,,,0.00,WUHU216HW,2013-06-22 20:49:00,
2013-06-22 15:50:00,92.9,72.1,29.90,South,180,9.2,14.3,51,0.00,,,0.00,WUHU216HW,2013-06-22 20:50:00,
2013-06-22 15:52:00,93.1,71.6,29.90,SW,225,8.1,14.3,50,0.00,,,0.00,WUHU216HW,2013-06-22 20:52:00,
2013-06-22 15:54:00,93.1,71.6,29.90,SSE,158,5.6,14.3,50,0.00,,,0.00,WUHU216HW,2013-06-22 20:54:00,
2013-06-22 15:55:00,93.1,71.6,29.90,SSE,158,5.6,14.3,50,0.00,,,0.00,WUHU216HW,2013-06-22 20:55:00,
2013-06-22 15:56:00,93.2,71.8,29.90,SSW,203,12.1,12.1,50,0.00,,,0.00,WUHU216HW,2013-06-22 20:56:00,
2013-06-22 15:57:00,93.2,71.8,29.90,SE,135,4.0,13.0,50,0.00,,,0.00,WUHU216HW,2013-06-22 20:57:00,
2013-06-22 15:59:00,93.2,70.6,29.90,SSE,158,9.8,13.0,48,0.00,,,0.00,WUHU216HW,2013-06-22 20:59:00,
2013-06-22 16:00:00,93.1,71.0,29.90,South,180,6.9,13.0,49,0.00,,,0.00,WUHU216HW,2013-06-22 21:00:00,
2013-06-22 16:01:00,93.1,71.0,29.90,ESE,113,6.9,13.0,49,0.00,,,0.00,WUHU216HW,2013-06-22 21:01:00,
2013-06-22 16:02:00,93.1,71.0,29.90,South,180,9.8,13.0,49,0.00,,,0.00,WUHU216HW,2013-06-22 21:02:00,
2013-06-22 16:05:00,92.9,70.8,29.90,SSE,158,10.5,13.0,49,0.00,,,0.00,WUHU216HW,2013-06-22 21:05:00,
2013-06-22 16:06:00,92.9,71.5,29.89,ESE,113,2.5,13.0,50,0.00,,,0.00,WUHU216HW,2013-06-22 21:06:00,
2013-06-22 16:08:00,93.1,71.6,29.89,WSW,248,6.5,12.1,50,0.00,,,0.00,WUHU216HW,2013-06-22 21:08:00,
2013-06-22 16:10:00,93.1,70.4,29.88,South,180,8.1,12.1,48,0.00,,,0.00,WUHU216HW,2013-06-22 21:10:00,
2013-06-22 16:11:00,93.1,71.0,29.88,East,90,8.9,12.1,49,0.00,,,0.00,WUHU216HW,2013-06-22 21:11:00,
2013-06-22 16:13:00,92.9,70.2,29.88,South,180,10.5,14.1,48,0.00,,,0.00,WUHU216HW,2013-06-22 21:13:00,
2013-06-22 16:15:00,92.5,69.8,29.87,South,180,12.3,14.1,48,0.00,,,0.00,WUHU216HW,2013-06-22 21:15:00,
2013-06-22 16:16:00,92.5,70.6,29.87,SSW,203,10.5,14.1,49,0.00,,,0.00,WUHU216HW,2013-06-22 21:16:00,
2013-06-22 16:18:00,92.5,70.6,29.87,SSE,158,10.5,14.1,49,0.00,,,0.00,WUHU216HW,2013-06-22 21:18:00,
2013-06-22 16:20:00,92.5,69.8,29.87,SSE,158,9.6,15.4,48,0.00,,,0.00,WUHU216HW,2013-06-22 21:20:00,
2013-06-22 16:21:00,92.5,69.8,29.87,SSE,158,9.6,15.4,48,0.00,,,0.00,WUHU216HW,2013-06-22 21:21:00,
2013-06-22 16:23:00,92.3,69.8,29.86,SSW,203,11.0,15.4,48,0.00,,,0.00,WUHU216HW,2013-06-22 21:23:00,
2013-06-22 16:25:00,92.2,70.2,29.86,SSW,203,14.8,15.4,49,0.00,,,0.00,WUHU216HW,2013-06-22 21:25:00,
2013-06-22 16:26:00,92.2,69.6,29.86,SE,135,8.5,15.4,48,0.00,,,0.00,WUHU216HW,2013-06-22 21:26:00,
2013-06-22 16:28:00,92.3,69.8,29.86,SSW,203,10.7,15.4,48,0.00,,,0.00,WUHU216HW,2013-06-22 21:28:00,
2013-06-22 16:31:00,92.2,69.6,29.86,SW,225,7.2,20.4,48,0.00,,,0.00,WUHU216HW,2013-06-22 21:31:00,
2013-06-22 16:33:00,92.2,69.6,29.86,SW,225,11.0,20.4,48,0.00,,,0.00,WUHU216HW,2013-06-22 21:33:00,
2013-06-22 16:36:00,92.2,69.6,29.85,SE,135,7.2,20.4,48,0.00,,,0.00,WUHU216HW,2013-06-22 21:36:00,
2013-06-22 16:37:00,92.2,69.6,29.85,SW,225,6.3,20.4,48,0.00,,,0.00,WUHU216HW,2013-06-22 21:37:00,
2013-06-22 16:38:00,92.3,69.8,29.85,SW,225,12.5,20.4,48,0.00,,,0.00,WUHU216HW,2013-06-22 21:38:00,
2013-06-22 16:41:00,92.2,69.6,29.85,SSW,203,10.1,16.1,48,0.00,,,0.00,WUHU216HW,2013-06-22 21:41:00,
2013-06-22 16:42:00,92.2,69.6,29.85,South,180,8.7,16.1,48,0.00,,,0.00,WUHU216HW,2013-06-22 21:42:00,
2013-06-22 16:43:00,92.3,70.4,29.86,SSE,158,9.4,16.1,49,0.00,,,0.00,WUHU216HW,2013-06-22 21:43:00,
2013-06-22 16:46:00,92.3,69.8,29.86,SSW,203,6.9,16.1,48,0.00,,,0.00,WUHU216HW,2013-06-22 21:46:00,
2013-06-22 16:47:00,92.3,69.8,29.86,SW,225,5.6,16.1,48,0.00,,,0.00,WUHU216HW,2013-06-22 21:47:00,
2013-06-22 16:49:00,92.5,69.8,29.86,SSW,203,12.5,16.1,48,0.00,,,0.00,WUHU216HW,2013-06-22 21:49:00,
2013-06-22 16:51:00,92.5,69.8,29.86,SE,135,9.8,15.0,48,0.00,,,0.00,WUHU216HW,2013-06-22 21:51:00,
2013-06-22 16:52:00,92.5,69.8,29.86,SSW,203,6.9,15.0,48,0.00,,,0.00,WUHU216HW,2013-06-22 21:52:00,
2013-06-22 16:54:00,92.5,69.8,29.86,SSE,158,7.4,15.0,48,0.00,,,0.00,WUHU216HW,2013-06-22 21:54:00,
2013-06-22 16:56:00,92.5,69.8,29.86,SSE,158,9.8,14.1,48,0.00,,,0.00,WUHU216HW,2013-06-22 21:56:00,
2013-06-22 16:57:00,92.5,70.6,29.86,SSE,158,7.8,14.1,49,0.00,,,0.00,WUHU216HW,2013-06-22 21:57:00,
2013-06-22 16:59:00,92.5,69.8,29.86,SSE,158,11.6,14.1,48,0.00,,,0.00,WUHU216HW,2013-06-22 21:59:00,
2013-06-22 17:01:00,92.3,69.0,29.85,SSW,203,9.8,14.1,47,0.00,,,0.00,WUHU216HW,2013-06-22 22:01:00,
2013-06-22 17:02:00,92.3,69.8,29.85,WSW,248,7.6,14.1,48,0.00,,,0.00,WUHU216HW,2013-06-22 22:02:00,
2013-06-22 17:04:00,92.2,69.0,29.85,South,180,7.8,15.0,47,0.00,,,0.00,WUHU216HW,2013-06-22 22:04:00,
2013-06-22 17:06:00,92.2,69.6,29.85,South,180,15.4,15.4,48,0.00,,,0.00,WUHU216HW,2013-06-22 22:06:00,
2013-06-22 17:07:00,92.2,69.6,29.85,South,180,7.6,15.4,48,0.00,,,0.00,WUHU216HW,2013-06-22 22:07:00,
2013-06-22 17:09:00,92.2,69.0,29.85,South,180,7.6,15.4,47,0.00,,,0.00,WUHU216HW,2013-06-22 22:09:00,
2013-06-22 17:12:00,92.2,69.0,29.85,SSW,203,13.2,17.4,47,0.00,,,0.00,WUHU216HW,2013-06-22 22:12:00,
2013-06-22 17:13:00,92.0,68.8,29.85,SSE,158,11.2,17.4,47,0.00,,,0.00,WUHU216HW,2013-06-22 22:13:00,
2013-06-22 17:14:00,91.8,68.0,29.85,SSE,158,13.9,17.4,46,0.00,,,0.00,WUHU216HW,2013-06-22 22:14:00,
2013-06-22 17:17:00,91.8,68.0,29.85,SSW,203,6.0,17.4,46,0.00,,,0.00,WUHU216HW,2013-06-22 22:17:00,
2013-06-22 17:18:00,91.8,68.6,29.85,SW,225,7.6,17.4,47,0.00,,,0.00,WUHU216HW,2013-06-22 22:18:00,
2013-06-22 17:20:00,91.6,67.8,29.85,South,180,9.6,17.4,46,0.00,,,0.00,WUHU216HW,2013-06-22 22:20:00,
2013-06-22 17:22:00,91.6,68.4,29.85,SSW,203,6.7,14.3,47,0.00,,,0.00,WUHU216HW,2013-06-22 22:22:00,
2013-06-22 17:23:00,91.6,68.4,29.85,SSW,203,6.7,14.3,47,0.00,,,0.00,WUHU216HW,2013-06-22 22:23:00,
2013-06-22 17:25:00,91.8,68.6,29.86,SSW,203,13.9,13.9,47,0.00,,,0.00,WUHU216HW,2013-06-22 22:25:00,
2013-06-22 17:27:00,91.8,69.2,29.85,WSW,248,6.7,15.7,48,0.00,,,0.00,WUHU216HW,2013-06-22 22:27:00,
2013-06-22 17:28:00,91.8,68.6,29.85,SW,225,16.3,16.3,47,0.00,,,0.00,WUHU216HW,2013-06-22 22:28:00,
2013-06-22 17:30:00,91.8,69.2,29.85,SW,225,6.9,16.3,48,0.00,,,0.00,WUHU216HW,2013-06-22 22:30:00,
2013-06-22 17:32:00,91.8,69.2,29.86,South,180,14.5,16.3,48,0.00,,,0.00,WUHU216HW,2013-06-22 22:32:00,
2013-06-22 17:33:00,91.8,69.2,29.86,South,180,14.5,16.3,48,0.00,,,0.00,WUHU216HW,2013-06-22 22:33:00,
2013-06-22 17:34:00,91.8,69.8,29.86,South,180,9.6,16.3,49,0.00,,,0.00,WUHU216HW,2013-06-22 22:34:00,
2013-06-22 17:35:00,91.8,69.8,29.86,SSW,203,7.6,16.3,49,0.00,,,0.00,WUHU216HW,2013-06-22 22:35:00,
2013-06-22 17:38:00,91.4,70.2,29.86,SE,135,8.5,16.3,50,0.00,,,0.00,WUHU216HW,2013-06-22 22:38:00,
2013-06-22 17:39:00,91.3,69.4,29.86,South,180,8.9,17.7,49,0.00,,,0.00,WUHU216HW,2013-06-22 22:39:00,
2013-06-22 17:40:00,90.9,69.8,29.86,SSE,158,10.1,17.7,50,0.00,,,0.00,WUHU216HW,2013-06-22 22:40:00,
2013-06-22 17:43:00,90.7,69.6,29.86,SW,225,3.1,17.7,50,0.00,,,0.00,WUHU216HW,2013-06-22 22:43:00,
2013-06-22 17:44:00,90.5,69.4,29.86,SW,225,10.5,17.7,50,0.00,,,0.00,WUHU216HW,2013-06-22 22:44:00,
2013-06-22 17:45:00,90.7,69.6,29.86,SW,225,14.3,17.7,50,0.00,,,0.00,WUHU216HW,2013-06-22 22:45:00,
2013-06-22 17:48:00,90.9,68.4,29.85,SSE,158,11.6,17.7,48,0.00,,,0.00,WUHU216HW,2013-06-22 22:48:00,
2013-06-22 17:49:00,90.7,69.0,29.86,SSW,203,12.8,16.8,49,0.00,,,0.00,WUHU216HW,2013-06-22 22:49:00,
2013-06-22 17:51:00,90.9,69.0,29.86,SSW,203,8.5,16.8,49,0.00,,,0.00,WUHU216HW,2013-06-22 22:51:00,
2013-06-22 17:53:00,90.7,68.2,29.86,South,180,4.7,16.6,48,0.00,,,0.00,WUHU216HW,2013-06-22 22:53:00,
2013-06-22 17:54:00,90.7,68.2,29.86,SE,135,10.5,16.6,48,0.00,,,0.00,WUHU216HW,2013-06-22 22:54:00,
2013-06-22 17:56:00,90.7,68.2,29.86,South,180,13.6,16.6,48,0.00,,,0.00,WUHU216HW,2013-06-22 22:56:00,
2013-06-22 17:58:00,90.7,68.2,29.86,WSW,248,5.8,16.6,48,0.00,,,0.00,WUHU216HW,2013-06-22 22:58:00,
2013-06-22 17:59:00,90.7,68.2,29.86,South,180,7.8,16.6,48,0.00,,,0.00,WUHU216HW,2013-06-22 22:59:00,
2013-06-22 18:01:00,90.5,68.8,29.85,SSW,203,9.8,14.8,49,0.00,,,0.00,WUHU216HW,2013-06-22 23:01:00,
2013-06-22 18:03:00,90.4,68.6,29.85,SSW,203,14.1,14.8,49,0.00,,,0.00,WUHU216HW,2013-06-22 23:03:00,
2013-06-22 18:04:00,90.4,68.6,29.85,SW,225,14.3,14.8,49,0.00,,,0.00,WUHU216HW,2013-06-22 23:04:00,
2013-06-22 18:05:00,90.2,68.4,29.86,South,180,8.5,14.8,49,0.00,,,0.00,WUHU216HW,2013-06-22 23:05:00,
2013-06-22 18:06:00,90.2,69.0,29.86,SSW,203,6.9,14.8,50,0.00,,,0.00,WUHU216HW,2013-06-22 23:06:00,
2013-06-22 18:08:00,90.2,69.0,29.86,SSE,158,5.4,14.3,50,0.00,,,0.00,WUHU216HW,2013-06-22 23:08:00,
2013-06-22 18:09:00,90.2,69.0,29.86,SSW,203,10.1,14.3,50,0.00,,,0.00,WUHU216HW,2013-06-22 23:09:00,
2013-06-22 18:10:00,90.2,69.0,29.86,SSW,203,14.5,14.5,50,0.00,,,0.00,WUHU216HW,2013-06-22 23:10:00,
2013-06-22 18:12:00,90.2,69.0,29.86,WSW,248,6.0,17.0,50,0.00,,,0.00,WUHU216HW,2013-06-22 23:12:00,
2013-06-22 18:14:00,90.0,68.2,29.86,South,180,8.3,17.0,49,0.00,,,0.00,WUHU216HW,2013-06-22 23:14:00,
2013-06-22 18:15:00,90.0,67.6,29.86,SSE,158,6.3,17.0,48,0.00,,,0.00,WUHU216HW,2013-06-22 23:15:00,
2013-06-22 18:17:00,90.0,67.6,29.86,SW,225,8.9,17.0,48,0.00,,,0.00,WUHU216HW,2013-06-22 23:17:00,
2013-06-22 18:19:00,89.8,66.8,29.86,South,180,11.6,17.0,47,0.00,,,0.00,WUHU216HW,2013-06-22 23:19:00,
2013-06-22 18:20:00,89.6,66.6,29.86,SSE,158,11.4,15.0,47,0.00,,,0.00,WUHU216HW,2013-06-22 23:20:00,
2013-06-22 18:22:00,89.6,66.6,29.87,SSE,158,8.7,17.2,47,0.00,,,0.00,WUHU216HW,2013-06-22 23:22:00,
2013-06-22 18:24:00,89.5,66.5,29.87,South,180,13.6,17.2,47,0.00,,,0.00,WUHU216HW,2013-06-22 23:24:00,
2013-06-22 18:25:00,89.3,66.3,29.87,SW,225,14.5,17.2,47,0.00,,,0.00,WUHU216HW,2013-06-22 23:25:00,
2013-06-22 18:27:00,89.1,66.8,29.87,SSW,203,9.2,17.2,48,0.00,,,0.00,WUHU216HW,2013-06-22 23:27:00,
2013-06-22 18:28:00,88.9,66.7,29.87,SSW,203,6.3,17.2,48,0.00,,,0.00,WUHU216HW,2013-06-22 23:28:00,
2013-06-22 18:29:00,88.9,67.3,29.87,SSE,158,6.7,17.2,49,0.00,,,0.00,WUHU216HW,2013-06-22 23:29:00,
2013-06-22 18:30:00,88.9,67.3,29.87,SSW,203,6.7,17.2,49,0.00,,,0.00,WUHU216HW,2013-06-22 23:30:00,
2013-06-22 18:32:00,88.7,67.8,29.87,SSW,203,3.4,14.5,50,0.00,,,0.00,WUHU216HW,2013-06-22 23:32:00,
2013-06-22 18:33:00,88.7,67.8,29.87,West,270,4.0,14.5,50,0.00,,,0.00,WUHU216HW,2013-06-22 23:33:00,
2013-06-22 18:34:00,88.7,67.8,29.87,SW,225,2.7,14.5,50,0.00,,,0.00,WUHU216HW,2013-06-22 23:34:00,
2013-06-22 18:35:00,88.7,67.8,29.87,SSW,203,8.9,14.5,50,0.00,,,0.00,WUHU216HW,2013-06-22 23:35:00,
2013-06-22 18:36:00,88.6,67.6,29.87,SE,135,10.5,10.5,50,0.00,,,0.00,WUHU216HW,2013-06-22 23:36:00,
2013-06-22 18:37:00,88.6,67.6,29.87,SSE,158,15.7,15.7,50,0.00,,,0.00,WUHU216HW,2013-06-22 23:37:00,
2013-06-22 18:38:00,88.6,67.6,29.87,South,180,7.2,15.7,50,0.00,,,0.00,WUHU216HW,2013-06-22 23:38:00,
2013-06-22 18:39:00,88.6,68.1,29.87,SSE,158,10.7,15.7,51,0.00,,,0.00,WUHU216HW,2013-06-22 23:39:00,
2013-06-22 18:40:00,88.6,68.1,29.87,SSW,203,8.9,15.7,51,0.00,,,0.00,WUHU216HW,2013-06-22 23:40:00,
2013-06-22 18:41:00,88.6,68.1,29.87,South,180,7.6,15.7,51,0.00,,,0.00,WUHU216HW,2013-06-22 23:41:00,
2013-06-22 18:42:00,88.4,68.5,29.87,South,180,8.1,15.7,52,0.00,,,0.00,WUHU216HW,2013-06-22 23:42:00,
2013-06-22 18:43:00,88.2,68.4,29.87,South,180,2.5,15.7,52,0.00,,,0.00,WUHU216HW,2013-06-22 23:43:00,
2013-06-22 18:44:00,88.2,68.4,29.87,SSE,158,6.3,15.7,52,0.00,,,0.00,WUHU216HW,2013-06-22 23:44:00,
2013-06-22 18:45:00,88.2,68.4,29.87,SSW,203,2.5,15.7,52,0.00,,,0.00,WUHU216HW,2013-06-22 23:45:00,
2013-06-22 18:47:00,88.2,69.0,29.87,South,180,6.5,15.7,53,0.00,,,0.00,WUHU216HW,2013-06-22 23:47:00,
2013-06-22 18:49:00,88.2,69.0,29.88,South,180,3.1,12.1,53,0.00,,,0.00,WUHU216HW,2013-06-22 23:49:00,
2013-06-22 18:50:00,88.2,69.0,29.88,SSW,203,7.4,9.8,53,0.00,,,0.00,WUHU216HW,2013-06-22 23:50:00,
2013-06-22 18:52:00,88.2,69.5,29.88,SSW,203,3.1,12.7,54,0.00,,,0.00,WUHU216HW,2013-06-22 23:52:00,
2013-06-22 18:54:00,88.0,69.3,29.88,SSW,203,6.5,12.7,54,0.00,,,0.00,WUHU216HW,2013-06-22 23:54:00,
2013-06-22 18:56:00,87.8,69.1,29.88,SSE,158,5.1,12.7,54,0.00,,,0.00,WUHU216HW,2013-06-22 23:56:00,
2013-06-22 18:57:00,87.8,69.1,29.88,SSE,158,3.4,12.7,54,0.00,,,0.00,WUHU216HW,2013-06-22 23:57:00,
2013-06-22 18:58:00,87.8,69.7,29.88,SE,135,4.5,12.7,55,0.00,,,0.00,WUHU216HW,2013-06-22 23:58:00,
2013-06-22 18:59:00,87.8,69.7,29.88,SSW,203,6.3,12.7,55,0.00,,,0.00,WUHU216HW,2013-06-22 23:59:00,
2013-06-22 19:00:00,87.8,69.7,29.88,South,180,3.4,12.7,55,0.00,,,0.00,WUHU216HW,2013-06-23 00:00:00,
2013-06-22 19:01:00,87.8,69.7,29.88,SE,135,2.0,12.7,55,0.00,,,0.00,WUHU216HW,2013-06-23 00:01:00,
2013-06-22 19:02:00,87.7,70.0,29.88,South,180,4.9,8.4,56,0.00,,,0.00,WUHU216HW,2013-06-23 00:02:00,
2013-06-22 19:03:00,87.7,70.0,29.88,South,180,3.1,8.4,56,0.00,,,0.00,WUHU216HW,2013-06-23 00:03:00,
2013-06-22 19:04:00,87.7,70.0,29.88,SSE,158,5.4,8.2,56,0.00,,,0.00,WUHU216HW,2013-06-23 00:04:00,
2013-06-22 19:05:00,87.5,69.8,29.88,South,180,7.6,9.9,56,0.00,,,0.00,WUHU216HW,2013-06-23 00:05:00,
2013-06-22 19:06:00,87.5,70.4,29.88,SSE,158,3.4,10.8,57,0.00,,,0.00,WUHU216HW,2013-06-23 00:06:00,
2013-06-22 19:07:00,87.5,70.4,29.88,ESE,113,0.0,10.8,57,0.00,,,0.00,WUHU216HW,2013-06-23 00:07:00,
2013-06-22 19:08:00,87.5,70.4,29.88,SSE,158,2.9,10.8,57,0.00,,,0.00,WUHU216HW,2013-06-23 00:08:00,
2013-06-22 19:09:00,87.3,70.2,29.88,SSE,158,6.5,10.8,57,0.00,,,0.00,WUHU216HW,2013-06-23 00:09:00,
2013-06-22 19:10:00,87.3,70.2,29.88,SSW,203,4.9,10.8,57,0.00,,,0.00,WUHU216HW,2013-06-23 00:10:00,
2013-06-22 19:11:00,87.3,70.2,29.88,South,180,8.3,10.8,57,0.00,,,0.00,WUHU216HW,2013-06-23 00:11:00,
2013-06-22 19:12:00,87.1,69.5,29.88,SSE,158,8.3,16.6,56,0.00,,,0.00,WUHU216HW,2013-06-23 00:12:00,
2013-06-22 19:13:00,87.1,70.0,29.88,South,180,6.7,16.6,57,0.00,,,0.00,WUHU216HW,2013-06-23 00:13:00,
2013-06-22 19:15:00,87.1,69.5,29.88,South,180,4.5,16.6,56,0.00,,,0.00,WUHU216HW,2013-06-23 00:15:00,
2013-06-22 19:16:00,86.9,69.8,29.88,ESE,113,7.8,16.6,57,0.00,,,0.00,WUHU216HW,2013-06-23 00:16:00,
2013-06-22 19:17:00,86.9,69.8,29.88,SSE,158,3.6,16.6,57,0.00,,,0.00,WUHU216HW,2013-06-23 00:17:00,
2013-06-22 19:18:00,86.9,69.8,29.88,WSW,248,2.0,16.6,57,0.00,,,0.00,WUHU216HW,2013-06-23 00:18:00,
2013-06-22 19:20:00,86.8,69.1,29.88,SSE,158,0.4,16.6,56,0.00,,,0.00,WUHU216HW,2013-06-23 00:20:00,
2013-06-22 19:21:00,86.8,69.7,29.88,SSE,158,8.5,16.6,57,0.00,,,0.00,WUHU216HW,2013-06-23 00:21:00,
2013-06-22 19:22:00,86.8,69.7,29.88,SE,135,5.4,16.6,57,0.00,,,0.00,WUHU216HW,2013-06-23 00:22:00,
2013-06-22 19:23:00,86.8,69.7,29.88,SE,135,2.0,13.9,57,0.00,,,0.00,WUHU216HW,2013-06-23 00:23:00,
2013-06-22 19:25:00,86.8,69.7,29.88,SSE,158,9.2,13.9,57,0.00,,,0.00,WUHU216HW,2013-06-23 00:25:00,
2013-06-22 19:26:00,86.6,69.5,29.88,South,180,5.6,14.8,57,0.00,,,0.00,WUHU216HW,2013-06-23 00:26:00,
2013-06-22 19:27:00,86.6,69.5,29.88,SSE,158,2.5,14.8,57,0.00,,,0.00,WUHU216HW,2013-06-23 00:27:00,
2013-06-22 19:28:00,86.6,69.5,29.88,SSE,158,4.7,14.8,57,0.00,,,0.00,WUHU216HW,2013-06-23 00:28:00,
2013-06-22 19:30:00,86.4,69.3,29.88,SW,225,6.9,14.8,57,0.00,,,0.00,WUHU216HW,2013-06-23 00:30:00,
2013-06-22 19:31:00,86.4,69.3,29.88,SE,135,5.1,14.8,57,0.00,,,0.00,WUHU216HW,2013-06-23 00:31:00,
2013-06-22 19:32:00,86.4,69.8,29.88,South,180,7.4,14.8,58,0.00,,,0.00,WUHU216HW,2013-06-23 00:32:00,
2013-06-22 19:33:00,86.4,69.8,29.88,South,180,6.3,14.8,58,0.00,,,0.00,WUHU216HW,2013-06-23 00:33:00,
2013-06-22 19:34:00,86.4,69.8,29.88,SSW,203,3.4,14.8,58,0.00,,,0.00,WUHU216HW,2013-06-23 00:34:00,
2013-06-22 19:35:00,86.4,69.8,29.88,SSE,158,2.9,14.8,58,0.00,,,0.00,WUHU216HW,2013-06-23 00:35:00,
2013-06-22 19:36:00,86.2,70.2,29.88,South,180,2.5,10.5,59,0.00,,,0.00,WUHU216HW,2013-06-23 00:36:00,
2013-06-22 19:38:00,86.2,69.7,29.88,SSE,158,4.7,10.5,58,0.00,,,0.00,WUHU216HW,2013-06-23 00:38:00,
2013-06-22 19:39:00,86.2,69.7,29.88,ESE,113,4.7,10.5,58,0.00,,,0.00,WUHU216HW,2013-06-23 00:39:00,
2013-06-22 19:41:00,86.2,70.2,29.88,SE,135,2.7,10.5,59,0.00,,,0.00,WUHU216HW,2013-06-23 00:41:00,
2013-06-22 19:43:00,86.0,69.5,29.88,SE,135,5.4,11.1,58,0.00,,,0.00,WUHU216HW,2013-06-23 00:43:00,
2013-06-22 19:44:00,86.0,70.0,29.88,ESE,113,5.4,11.1,59,0.00,,,0.00,WUHU216HW,2013-06-23 00:44:00,
2013-06-22 19:46:00,86.0,69.5,29.88,South,180,5.4,11.1,58,0.00,,,0.00,WUHU216HW,2013-06-23 00:46:00,
2013-06-22 19:47:00,86.0,70.0,29.88,SSE,158,6.3,11.1,59,0.00,,,0.00,WUHU216HW,2013-06-23 00:47:00,
2013-06-22 19:48:00,86.0,70.0,29.88,WNW,293,2.5,11.1,59,0.00,,,0.00,WUHU216HW,2013-06-23 00:48:00,
2013-06-22 19:49:00,85.9,70.4,29.88,SE,135,6.3,11.1,60,0.00,,,0.00,WUHU216HW,2013-06-23 00:49:00,
2013-06-22 19:51:00,85.9,69.8,29.88,South,180,6.9,11.1,59,0.00,,,0.00,WUHU216HW,2013-06-23 00:51:00,
2013-06-22 19:52:00,85.9,69.8,29.88,SSE,158,9.6,12.5,59,0.00,,,0.00,WUHU216HW,2013-06-23 00:52:00,
2013-06-22 19:53:00,85.9,70.4,29.88,South,180,9.4,12.5,60,0.00,,,0.00,WUHU216HW,2013-06-23 00:53:00,
2013-06-22 19:54:00,85.9,70.4,29.89,SE,135,6.9,12.5,60,0.00,,,0.00,WUHU216HW,2013-06-23 00:54:00,
2013-06-22 19:55:00,85.7,70.2,29.89,SSE,158,10.5,13.6,60,0.00,,,0.00,WUHU216HW,2013-06-23 00:55:00,
2013-06-22 19:56:00,85.9,70.4,29.89,SE,135,6.0,13.6,60,0.00,,,0.00,WUHU216HW,2013-06-23 00:56:00,
2013-06-22 19:57:00,85.7,69.8,29.89,SE,135,5.4,13.6,59,0.00,,,0.00,WUHU216HW,2013-06-23 00:57:00,
2013-06-22 19:58:00,85.7,70.2,29.89,SSW,203,2.2,13.6,60,0.00,,,0.00,WUHU216HW,2013-06-23 00:58:00,
2013-06-22 20:00:00,85.7,70.2,29.89,SSW,203,7.4,13.6,60,0.00,,,0.00,WUHU216HW,2013-06-23 01:00:00,
2013-06-22 20:01:00,85.7,70.2,29.89,SSE,158,5.4,13.6,60,0.00,,,0.00,WUHU216HW,2013-06-23 01:01:00,
2013-06-22 20:02:00,85.7,70.2,29.89,SSW,203,4.7,13.6,60,0.00,,,0.00,WUHU216HW,2013-06-23 01:02:00,
2013-06-22 20:03:00,85.7,70.2,29.89,SSE,158,8.9,13.6,60,0.00,,,0.00,WUHU216HW,2013-06-23 01:03:00,
2013-06-22 20:05:00,85.7,70.2,29.89,SSE,158,6.3,13.6,60,0.00,,,0.00,WUHU216HW,2013-06-23 01:05:00,
2013-06-22 20:07:00,85.5,70.1,29.89,ESE,113,3.4,13.6,60,0.00,,,0.00,WUHU216HW,2013-06-23 01:07:00,
2013-06-22 20:09:00,85.5,70.1,29.89,SSW,203,3.8,13.6,60,0.00,,,0.00,WUHU216HW,2013-06-23 01:09:00,
2013-06-22 20:10:00,85.3,69.9,29.89,South,180,5.8,13.6,60,0.00,,,0.00,WUHU216HW,2013-06-23 01:10:00,
2013-06-22 20:12:00,85.3,69.9,29.89,SW,225,9.2,14.3,60,0.00,,,0.00,WUHU216HW,2013-06-23 01:12:00,
2013-06-22 20:14:00,85.3,69.9,29.89,SSE,158,6.5,14.3,60,0.00,,,0.00,WUHU216HW,2013-06-23 01:14:00,
2013-06-22 20:15:00,85.3,70.4,29.89,SE,135,5.4,14.3,61,0.00,,,0.00,WUHU216HW,2013-06-23 01:15:00,
2013-06-22 20:16:00,85.3,70.4,29.89,SSE,158,3.4,14.3,61,0.00,,,0.00,WUHU216HW,2013-06-23 01:16:00,
2013-06-22 20:17:00,85.3,70.4,29.89,SE,135,3.4,14.3,61,0.00,,,0.00,WUHU216HW,2013-06-23 01:17:00,
2013-06-22 20:19:00,85.1,70.2,29.89,SSE,158,1.8,14.3,61,0.00,,,0.00,WUHU216HW,2013-06-23 01:19:00,
2013-06-22 20:20:00,85.1,70.2,29.89,SSE,158,4.7,14.3,61,0.00,,,0.00,WUHU216HW,2013-06-23 01:20:00,
2013-06-22 20:21:00,85.0,70.0,29.89,SSW,203,5.8,14.3,61,0.00,,,0.00,WUHU216HW,2013-06-23 01:21:00,
2013-06-22 20:22:00,85.0,70.5,29.89,SE,135,6.0,11.3,62,0.00,,,0.00,WUHU216HW,2013-06-23 01:22:00,
2013-06-22 20:23:00,85.0,70.5,29.89,SE,135,4.0,11.3,62,0.00,,,0.00,WUHU216HW,2013-06-23 01:23:00,
2013-06-22 20:24:00,85.0,70.0,29.89,South,180,4.9,11.3,61,0.00,,,0.00,WUHU216HW,2013-06-23 01:24:00,
2013-06-22 20:26:00,85.0,70.5,29.89,SW,225,3.4,11.3,62,0.00,,,0.00,WUHU216HW,2013-06-23 01:26:00,
2013-06-22 20:28:00,84.8,70.4,29.89,SE,135,6.3,11.3,62,0.00,,,0.00,WUHU216HW,2013-06-23 01:28:00,
2013-06-22 20:29:00,84.8,70.4,29.89,ENE,68,1.6,11.3,62,0.00,,,0.00,WUHU216HW,2013-06-23 01:29:00,
2013-06-22 20:31:00,84.6,70.2,29.89,SSE,158,5.1,11.1,62,0.00,,,0.00,WUHU216HW,2013-06-23 01:31:00,
2013-06-22 20:33:00,84.6,70.7,29.89,South,180,4.3,9.9,63,0.00,,,0.00,WUHU216HW,2013-06-23 01:33:00,
2013-06-22 20:34:00,84.6,70.7,29.89,SSE,158,6.5,10.5,63,0.00,,,0.00,WUHU216HW,2013-06-23 01:34:00,
2013-06-22 20:36:00,84.4,70.5,29.89,SE,135,3.1,10.5,63,0.00,,,0.00,WUHU216HW,2013-06-23 01:36:00,
2013-06-22 20:38:00,84.2,70.3,29.89,ENE,68,2.9,10.5,63,0.00,,,0.00,WUHU216HW,2013-06-23 01:38:00,
2013-06-22 20:39:00,84.2,70.7,29.89,SE,135,4.3,10.5,64,0.00,,,0.00,WUHU216HW,2013-06-23 01:39:00,
2013-06-22 20:41:00,84.1,71.0,29.89,SE,135,1.8,10.5,65,0.00,,,0.00,WUHU216HW,2013-06-23 01:41:00,
2013-06-22 20:43:00,84.1,70.6,29.89,SSW,203,4.5,10.5,64,0.00,,,0.00,WUHU216HW,2013-06-23 01:43:00,
2013-06-22 20:44:00,83.9,70.4,29.89,SE,135,5.4,9.9,64,0.00,,,0.00,WUHU216HW,2013-06-23 01:44:00,
2013-06-22 20:46:00,83.9,70.4,29.89,SE,135,6.3,9.0,64,0.00,,,0.00,WUHU216HW,2013-06-23 01:46:00,
2013-06-22 20:47:00,83.9,70.4,29.89,SSE,158,4.9,9.0,64,0.00,,,0.00,WUHU216HW,2013-06-23 01:47:00,
2013-06-22 20:48:00,83.9,70.8,29.89,ESE,113,4.0,9.0,65,0.00,,,0.00,WUHU216HW,2013-06-23 01:48:00,
2013-06-22 20:49:00,83.7,70.2,29.89,SE,135,3.6,9.0,64,0.00,,,0.00,WUHU216HW,2013-06-23 01:49:00,
2013-06-22 20:51:00,83.7,70.7,29.89,ESE,113,3.4,9.0,65,0.00,,,0.00,WUHU216HW,2013-06-23 01:51:00,
2013-06-22 20:52:00,83.7,70.7,29.89,SE,135,3.8,9.0,65,0.00,,,0.00,WUHU216HW,2013-06-23 01:52:00,
2013-06-22 20:53:00,83.5,70.5,29.89,SSE,158,3.1,9.0,65,0.00,,,0.00,WUHU216HW,2013-06-23 01:53:00,
2013-06-22 20:54:00,83.5,70.5,29.89,SSE,158,3.1,9.0,65,0.00,,,0.00,WUHU216HW,2013-06-23 01:54:00,
2013-06-22 20:56:00,83.5,70.5,29.89,SE,135,5.1,12.7,65,0.00,,,0.00,WUHU216HW,2013-06-23 01:56:00,
2013-06-22 20:57:00,83.5,70.5,29.89,SE,135,3.4,12.7,65,0.00,,,0.00,WUHU216HW,2013-06-23 01:57:00,
2013-06-22 20:59:00,83.5,70.5,29.89,SSE,158,4.0,12.7,65,0.00,,,0.00,WUHU216HW,2013-06-23 01:59:00,
2013-06-22 21:00:00,83.3,70.3,29.89,South,180,4.0,12.7,65,0.00,,,0.00,WUHU216HW,2013-06-23 02:00:00,
2013-06-22 21:02:00,83.3,70.7,29.89,SE,135,3.4,12.7,66,0.00,,,0.00,WUHU216HW,2013-06-23 02:02:00,
2013-06-22 21:04:00,83.2,70.6,29.89,ESE,113,8.5,14.6,66,0.00,,,0.00,WUHU216HW,2013-06-23 02:04:00,
2013-06-22 21:05:00,83.2,70.1,29.89,SSE,158,3.4,14.6,65,0.00,,,0.00,WUHU216HW,2013-06-23 02:05:00,
2013-06-22 21:07:00,83.2,70.6,29.89,SSW,203,4.3,14.6,66,0.00,,,0.00,WUHU216HW,2013-06-23 02:07:00,
2013-06-22 21:08:00,83.2,70.6,29.89,South,180,3.8,14.6,66,0.00,,,0.00,WUHU216HW,2013-06-23 02:08:00,
2013-06-22 21:09:00,83.2,70.1,29.89,South,180,4.0,14.6,65,0.00,,,0.00,WUHU216HW,2013-06-23 02:09:00,
2013-06-22 21:10:00,83.2,70.6,29.89,SSE,158,3.8,14.6,66,0.00,,,0.00,WUHU216HW,2013-06-23 02:10:00,
2013-06-22 21:12:00,83.2,70.6,29.89,SE,135,2.7,14.6,66,0.00,,,0.00,WUHU216HW,2013-06-23 02:12:00,
2013-06-22 21:13:00,83.2,70.6,29.90,SE,135,4.7,11.1,66,0.00,,,0.00,WUHU216HW,2013-06-23 02:13:00,
2013-06-22 21:14:00,83.2,70.6,29.90,SE,135,4.0,9.0,66,0.00,,,0.00,WUHU216HW,2013-06-23 02:14:00,
2013-06-22 21:15:00,83.2,70.6,29.90,SSW,203,5.1,9.0,66,0.00,,,0.00,WUHU216HW,2013-06-23 02:15:00,
2013-06-22 21:17:00,83.2,71.0,29.90,SE,135,3.4,8.4,67,0.00,,,0.00,WUHU216HW,2013-06-23 02:17:00,
2013-06-22 21:19:00,83.0,70.4,29.90,SSE,158,2.5,8.4,66,0.00,,,0.00,WUHU216HW,2013-06-23 02:19:00,
2013-06-22 21:20:00,83.0,70.4,29.90,South,180,2.7,7.0,66,0.00,,,0.00,WUHU216HW,2013-06-23 02:20:00,
2013-06-22 21:22:00,83.0,70.8,29.90,SSE,158,5.4,7.5,67,0.00,,,0.00,WUHU216HW,2013-06-23 02:22:00,
2013-06-22 21:24:00,82.8,70.7,29.90,SSE,158,2.5,7.5,67,0.00,,,0.00,WUHU216HW,2013-06-23 02:24:00,
2013-06-22 21:25:00,82.8,70.7,29.90,South,180,3.8,7.5,67,0.00,,,0.00,WUHU216HW,2013-06-23 02:25:00,
2013-06-22 21:27:00,82.8,71.1,29.90,SE,135,2.9,7.5,68,0.00,,,0.00,WUHU216HW,2013-06-23 02:27:00,
2013-06-22 21:29:00,82.6,70.5,29.90,SSE,158,3.4,7.5,67,0.00,,,0.00,WUHU216HW,2013-06-23 02:29:00,
2013-06-22 21:30:00,82.6,70.5,29.90,SSE,158,2.5,7.5,67,0.00,,,0.00,WUHU216HW,2013-06-23 02:30:00,
2013-06-22 21:31:00,82.6,70.5,29.90,SE,135,3.1,7.5,67,0.00,,,0.00,WUHU216HW,2013-06-23 02:31:00,
2013-06-22 21:33:00,82.4,70.7,29.90,South,180,3.4,7.5,68,0.00,,,0.00,WUHU216HW,2013-06-23 02:33:00,
2013-06-22 21:34:00,82.4,70.7,29.90,SSE,158,5.6,7.5,68,0.00,,,0.00,WUHU216HW,2013-06-23 02:34:00,
2013-06-22 21:35:00,82.4,70.7,29.90,SW,225,5.1,8.7,68,0.00,,,0.00,WUHU216HW,2013-06-23 02:35:00,
2013-06-22 21:36:00,82.4,69.8,29.90,WSW,248,3.1,8.7,66,0.00,,,0.00,WUHU216HW,2013-06-23 02:36:00,
2013-06-22 21:38:00,82.4,70.7,29.91,SSE,158,6.0,8.7,68,0.00,,,0.00,WUHU216HW,2013-06-23 02:38:00,
2013-06-22 21:40:00,82.4,70.7,29.91,SE,135,0.4,8.7,68,0.00,,,0.00,WUHU216HW,2013-06-23 02:40:00,
2013-06-22 21:41:00,82.4,70.7,29.91,SSE,158,4.0,8.7,68,0.00,,,0.00,WUHU216HW,2013-06-23 02:41:00,
2013-06-22 21:43:00,82.4,70.7,29.91,South,180,2.7,8.7,68,0.00,,,0.00,WUHU216HW,2013-06-23 02:43:00,
2013-06-22 21:45:00,82.4,70.7,29.91,SSE,158,6.0,8.7,68,0.00,,,0.00,WUHU216HW,2013-06-23 02:45:00,
2013-06-22 21:46:00,82.4,70.7,29.91,SSE,158,8.5,11.1,68,0.00,,,0.00,WUHU216HW,2013-06-23 02:46:00,
2013-06-22 21:48:00,82.4,70.7,29.91,SSE,158,5.6,11.1,68,0.00,,,0.00,WUHU216HW,2013-06-23 02:48:00,
2013-06-22 21:50:00,82.4,69.8,29.91,SSE,158,8.9,11.6,66,0.00,,,0.00,WUHU216HW,2013-06-23 02:50:00,
2013-06-22 21:51:00,82.4,70.7,29.91,SSE,158,6.9,11.6,68,0.00,,,0.00,WUHU216HW,2013-06-23 02:51:00,
2013-06-22 21:53:00,82.4,70.7,29.91,South,180,7.2,11.6,68,0.00,,,0.00,WUHU216HW,2013-06-23 02:53:00,
2013-06-22 21:55:00,82.4,70.7,29.90,SE,135,2.9,11.6,68,0.00,,,0.00,WUHU216HW,2013-06-23 02:55:00,
2013-06-22 21:56:00,82.4,70.7,29.91,South,180,0.9,11.6,68,0.00,,,0.00,WUHU216HW,2013-06-23 02:56:00,
2013-06-22 21:59:00,82.4,70.7,29.91,SE,135,3.8,11.6,68,0.00,,,0.00,WUHU216HW,2013-06-23 02:59:00,
2013-06-22 22:00:00,82.4,70.7,29.90,SSE,158,3.1,11.6,68,0.00,,,0.00,WUHU216HW,2013-06-23 03:00:00,
2013-06-22 22:02:00,82.3,70.6,29.91,SSE,158,3.4,9.4,68,0.00,,,0.00,WUHU216HW,2013-06-23 03:02:00,
2013-06-22 22:04:00,82.3,70.1,29.91,ESE,113,6.3,12.0,67,0.00,,,0.00,WUHU216HW,2013-06-23 03:04:00,
2013-06-22 22:05:00,82.3,70.1,29.91,South,180,4.0,12.0,67,0.00,,,0.00,WUHU216HW,2013-06-23 03:05:00,
2013-06-22 22:06:00,82.3,70.1,29.91,South,180,4.0,12.0,67,0.00,,,0.00,WUHU216HW,2013-06-23 03:06:00,
2013-06-22 22:07:00,82.1,69.9,29.91,SSE,158,2.5,12.0,67,0.00,,,0.00,WUHU216HW,2013-06-23 03:07:00,
2013-06-22 22:09:00,82.1,70.4,29.91,SE,135,5.4,12.0,68,0.00,,,0.00,WUHU216HW,2013-06-23 03:09:00,
2013-06-22 22:10:00,82.1,70.4,29.91,SE,135,4.7,12.0,68,0.00,,,0.00,WUHU216HW,2013-06-23 03:10:00,
2013-06-22 22:11:00,82.1,69.9,29.91,SSW,203,4.3,12.0,67,0.00,,,0.00,WUHU216HW,2013-06-23 03:11:00,
2013-06-22 22:13:00,82.1,69.9,29.91,SSW,203,5.4,10.1,67,0.00,,,0.00,WUHU216HW,2013-06-23 03:13:00,
2013-06-22 22:15:00,82.1,69.9,29.92,SE,135,2.9,10.1,67,0.00,,,0.00,WUHU216HW,2013-06-23 03:15:00,
2013-06-22 22:16:00,82.1,69.9,29.91,South,180,5.1,10.1,67,0.00,,,0.00,WUHU216HW,2013-06-23 03:16:00,
2013-06-22 22:18:00,82.1,69.9,29.92,SW,225,7.2,11.1,67,0.00,,,0.00,WUHU216HW,2013-06-23 03:18:00,
2013-06-22 22:20:00,82.1,69.9,29.91,SSE,158,6.0,11.1,67,0.00,,,0.00,WUHU216HW,2013-06-23 03:20:00,
2013-06-22 22:21:00,81.9,69.9,29.92,SSE,158,4.5,11.1,67,0.00,,,0.00,WUHU216HW,2013-06-23 03:21:00,
2013-06-22 22:23:00,82.1,69.9,29.92,SSW,203,5.8,11.1,67,0.00,,,0.00,WUHU216HW,2013-06-23 03:23:00,
2013-06-22 22:25:00,81.9,69.9,29.92,South,180,1.8,11.6,67,0.00,,,0.00,WUHU216HW,2013-06-23 03:25:00,
2013-06-22 22:26:00,81.9,69.9,29.92,SW,225,3.6,11.6,67,0.00,,,0.00,WUHU216HW,2013-06-23 03:26:00,
2013-06-22 22:28:00,81.9,70.3,29.92,SSW,203,3.8,11.6,68,0.00,,,0.00,WUHU216HW,2013-06-23 03:28:00,
2013-06-22 22:31:00,81.9,69.9,29.92,South,180,5.8,11.6,67,0.00,,,0.00,WUHU216HW,2013-06-23 03:31:00,
2013-06-22 22:32:00,81.7,69.7,29.92,South,180,8.1,11.6,67,0.00,,,0.00,WUHU216HW,2013-06-23 03:32:00,
2013-06-22 22:34:00,81.7,70.1,29.92,ESE,113,6.3,11.1,68,0.00,,,0.00,WUHU216HW,2013-06-23 03:34:00,
2013-06-22 22:36:00,81.7,69.7,29.92,SSE,158,5.4,11.6,67,0.00,,,0.00,WUHU216HW,2013-06-23 03:36:00,
2013-06-22 22:37:00,81.7,70.1,29.92,SSE,158,5.4,11.6,68,0.00,,,0.00,WUHU216HW,2013-06-23 03:37:00,
2013-06-22 22:39:00,81.7,69.7,29.93,SSE,158,2.7,11.6,67,0.00,,,0.00,WUHU216HW,2013-06-23 03:39:00,
2013-06-22 22:41:00,81.7,70.1,29.93,ESE,113,8.1,11.6,68,0.00,,,0.00,WUHU216HW,2013-06-23 03:41:00,
2013-06-22 22:42:00,81.7,70.1,29.93,ESE,113,8.1,11.6,68,0.00,,,0.00,WUHU216HW,2013-06-23 03:42:00,
2013-06-22 22:44:00,81.7,69.7,29.93,South,180,3.4,11.6,67,0.00,,,0.00,WUHU216HW,2013-06-23 03:44:00,
2013-06-22 22:46:00,81.5,69.9,29.93,South,180,4.9,14.6,68,0.00,,,0.00,WUHU216HW,2013-06-23 03:46:00,
2013-06-22 22:47:00,81.5,69.9,29.93,South,180,4.9,14.6,68,0.00,,,0.00,WUHU216HW,2013-06-23 03:47:00,
2013-06-22 22:49:00,81.5,69.9,29.93,ESE,113,6.0,14.6,68,0.00,,,0.00,WUHU216HW,2013-06-23 03:49:00,
2013-06-22 22:52:00,81.5,69.9,29.93,SE,135,5.4,14.6,68,0.00,,,0.00,WUHU216HW,2013-06-23 03:52:00,
2013-06-22 22:54:00,81.4,69.8,29.93,SSE,158,5.8,14.6,68,0.00,,,0.00,WUHU216HW,2013-06-23 03:54:00,
2013-06-22 22:57:00,81.4,69.3,29.93,SSE,158,9.2,14.6,67,0.00,,,0.00,WUHU216HW,2013-06-23 03:57:00,
2013-06-22 22:59:00,81.5,69.5,29.93,SSE,158,4.3,14.6,67,0.00,,,0.00,WUHU216HW,2013-06-23 03:59:00,
2013-06-22 23:01:00,81.4,69.3,29.93,SSE,158,5.6,14.6,67,0.00,,,0.00,WUHU216HW,2013-06-23 04:01:00,
2013-06-22 23:06:00,81.4,69.3,29.93,SSW,203,4.7,14.6,67,0.00,,,0.00,WUHU216HW,2013-06-23 04:06:00,
2013-06-22 23:11:00,81.4,69.3,29.93,South,180,10.7,13.9,67,0.00,,,0.00,WUHU216HW,2013-06-23 04:11:00,
2013-06-22 23:12:00,81.4,69.3,29.93,SE,135,5.1,13.9,67,0.00,,,0.00,WUHU216HW,2013-06-23 04:12:00,
2013-06-22 23:16:00,81.4,69.3,29.93,South,180,4.3,13.9,67,0.00,,,0.00,WUHU216HW,2013-06-23 04:16:00,
2013-06-22 23:17:00,81.4,69.3,29.93,ESE,113,5.8,13.9,67,0.00,,,0.00,WUHU216HW,2013-06-23 04:17:00,
2013-06-22 23:21:00,81.2,69.6,29.93,South,180,2.7,9.9,68,0.00,,,0.00,WUHU216HW,2013-06-23 04:21:00,
2013-06-22 23:22:00,81.2,69.6,29.93,SSE,158,5.4,10.5,68,0.00,,,0.00,WUHU216HW,2013-06-23 04:22:00,
2013-06-22 23:26:00,81.2,69.1,29.93,SSE,158,4.0,10.5,67,0.00,,,0.00,WUHU216HW,2013-06-23 04:26:00,
2013-06-22 23:27:00,81.0,69.5,29.92,SSW,203,8.1,10.5,68,0.00,,,0.00,WUHU216HW,2013-06-23 04:27:00,
2013-06-22 23:31:00,81.0,69.5,29.92,SSW,203,1.6,10.5,68,0.00,,,0.00,WUHU216HW,2013-06-23 04:31:00,
2013-06-22 23:32:00,81.0,69.9,29.92,SSE,158,5.4,10.5,69,0.00,,,0.00,WUHU216HW,2013-06-23 04:32:00,
2013-06-22 23:36:00,81.0,69.9,29.92,SSE,158,6.7,12.0,69,0.00,,,0.00,WUHU216HW,2013-06-23 04:36:00,
2013-06-22 23:37:00,81.0,69.9,29.92,SSE,158,5.4,12.0,69,0.00,,,0.00,WUHU216HW,2013-06-23 04:37:00,
2013-06-22 23:41:00,80.8,69.8,29.93,South,180,3.6,12.0,69,0.00,,,0.00,WUHU216HW,2013-06-23 04:41:00,
2013-06-22 23:42:00,80.8,69.8,29.93,SSE,158,6.0,12.0,69,0.00,,,0.00,WUHU216HW,2013-06-23 04:42:00,
2013-06-22 23:46:00,80.8,69.8,29.93,SSE,158,6.0,9.0,69,0.00,,,0.00,WUHU216HW,2013-06-23 04:46:00,
2013-06-22 23:47:00,80.6,70.0,29.93,SE,135,8.7,11.3,70,0.00,,,0.00,WUHU216HW,2013-06-23 04:47:00,
2013-06-22 23:52:00,80.8,70.2,29.93,SSE,158,8.5,11.3,70,0.00,,,0.00,WUHU216HW,2013-06-23 04:52:00,
2013-06-22 23:53:00,80.6,70.0,29.93,ESE,113,4.7,11.3,70,0.00,,,0.00,WUHU216HW,2013-06-23 04:53:00,
2013-06-22 23:57:00,80.6,70.0,29.93,SSE,158,7.2,11.3,70,0.00,,,0.00,WUHU216HW,2013-06-23 04:57:00,
2013-06-22 23:58:00,80.6,70.0,29.93,SE,135,5.1,11.1,70,0.00,,,0.00,WUHU216HW,2013-06-23 04:58:00,